Wetterdaten: Dienstag, 13.10.2009
Datum Zeit Temp. Innen Temp. Aussen UV X Diff Temp. Feuchte Inne Feuchte Auss Sonnenschein Luftdruck Regen ab 0,1 Wind Sonnenschein Windben
13.10.2009 00:02 17,1 C 8,2 C 0,0 UV-I 0,0 C 57 % 90 % 0 % 1025,9 hPa 0,0 l/m 0,2 km/h (0 Bft) 0 min 0,0 km/h (0 Bft)
13.10.2009 00:04 17,1 C 8,2 C 0,0 UV-I 0,0 C 57 % 90 % 0 % 1025,9 hPa 0,0 l/m 0,2 km/h (0 Bft) 0 min 0,0 km/h (0 Bft)
13.10.2009 00:06 17,1 C 8,1 C 0,0 UV-I 0,0 C 57 % 91 % 0 % 1025,9 hPa 0,0 l/m 0,2 km/h (0 Bft) 0 min 0,0 km/h (0 Bft)
13.10.2009 00:08 17,1 C 8,1 C 0,0 UV-I 0,0 C 57 % 91 % 0 % 1025,9 hPa 0,0 l/m 0,2 km/h (0 Bft) 0 min 0,0 km/h (0 Bft)
13.10.2009 00:10 17,0 C 8,1 C 0,0 UV-I 0,0 C 57 % 91 % 0 % 1025,9 hPa 0,0 l/m 0,0 km/h (0 Bft) 0 min 0,0 km/h (0 Bft)
13.10.2009 00:12 17,1 C 8,1 C 0,0 UV-I 0,0 C 57 % 91 % 0 % 1025,9 hPa 0,0 l/m 0,0 km/h (0 Bft) 0 min 0,0 km/h (0 Bft)
13.10.2009 00:14 17,0 C 8,0 C 0,0 UV-I 0,0 C 57 % 91 % 0 % 1025,9 hPa 0,0 l/m 0,0 km/h (0 Bft) 0 min 0,0 km/h (0 Bft)
13.10.2009 00:16 17,0 C 8,0 C 0,0 UV-I 0,0 C 57 % 91 % 0 % 1026,6 hPa 0,0 l/m 0,0 km/h (0 Bft) 0 min 0,0 km/h (0 Bft)
13.10.2009 00:18 17,0 C 8,0 C 0,0 UV-I 0,0 C 57 % 91 % 0 % 1026,6 hPa 0,0 l/m 0,0 km/h (0 Bft) 0 min 0,0 km/h (0 Bft)
13.10.2009 00:20 17,0 C 8,0 C 0,0 UV-I 0,0 C 57 % 91 % 0 % 1026,6 hPa 0,0 l/m 0,0 km/h (0 Bft) 0 min 0,0 km/h (0 Bft)
13.10.2009 00:22 17,0 C 8,0 C 0,0 UV-I 0,0 C 57 % 91 % 0 % 1026,6 hPa 0,0 l/m 0,0 km/h (0 Bft) 0 min 0,0 km/h (0 Bft)
13.10.2009 00:24 17,0 C 8,1 C 0,0 UV-I 0,0 C 57 % 91 % 0 % 1026,6 hPa 0,0 l/m 0,2 km/h (0 Bft) 0 min 3,8 km/h (1 Bft)
13.10.2009 00:26 17,0 C 8,1 C 0,0 UV-I 0,0 C 57 % 91 % 0 % 1026,6 hPa 0,0 l/m 0,5 km/h (0 Bft) 0 min 0,0 km/h (0 Bft)
13.10.2009 00:28 17,0 C 8,0 C 0,0 UV-I 0,0 C 57 % 91 % 0 % 1026,6 hPa 0,0 l/m 0,5 km/h (0 Bft) 0 min 3,1 km/h (1 Bft)
13.10.2009 00:30 17,0 C 8,0 C 0,0 UV-I 0,0 C 57 % 91 % 0 % 1026,6 hPa 0,0 l/m 0,5 km/h (0 Bft) 0 min 0,0 km/h (0 Bft)
13.10.2009 00:32 17,0 C 8,0 C 0,0 UV-I 0,0 C 57 % 91 % 0 % 1026,6 hPa 0,0 l/m 0,7 km/h (0 Bft) 0 min 0,0 km/h (0 Bft)
13.10.2009 00:34 17,0 C 8,0 C 0,0 UV-I 0,0 C 57 % 91 % 0 % 1026,6 hPa 0,0 l/m 0,7 km/h (0 Bft) 0 min 0,0 km/h (0 Bft)
13.10.2009 00:36 17,0 C 8,0 C 0,0 UV-I 0,0 C 57 % 91 % 0 % 1026,2 hPa 0,0 l/m 0,5 km/h (0 Bft) 0 min 0,0 km/h (0 Bft)
13.10.2009 00:38 17,0 C 8,0 C 0,0 UV-I 0,0 C 57 % 91 % 0 % 1026,2 hPa 0,0 l/m 0,2 km/h (0 Bft) 0 min 0,0 km/h (0 Bft)
13.10.2009 00:40 17,0 C 7,9 C 0,0 UV-I 0,0 C 57 % 91 % 0 % 1026,2 hPa 0,0 l/m 0,2 km/h (0 Bft) 0 min 0,0 km/h (0 Bft)
13.10.2009 00:42 17,0 C 7,9 C 0,0 UV-I 0,0 C 57 % 91 % 0 % 1026,2 hPa 0,0 l/m 0,0 km/h (0 Bft) 0 min 0,0 km/h (0 Bft)
13.10.2009 00:44 17,0 C 7,9 C 0,0 UV-I 0,0 C 57 % 91 % 0 % 1026,2 hPa 0,0 l/m 0,0 km/h (0 Bft) 0 min 0,0 km/h (0 Bft)
13.10.2009 00:46 17,0 C 7,9 C 0,0 UV-I 0,0 C 57 % 91 % 0 % 1026,2 hPa 0,0 l/m 0,0 km/h (0 Bft) 0 min 0,0 km/h (0 Bft)
13.10.2009 00:48 17,0 C 7,8 C 0,0 UV-I 0,0 C 57 % 91 % 0 % 1026,2 hPa 0,0 l/m 0,0 km/h (0 Bft) 0 min 0,0 km/h (0 Bft)
13.10.2009 00:52 17,0 C 7,8 C 0,0 UV-I 0,0 C 57 % 92 % 0 % 1026,2 hPa 0,0 l/m 0,5 km/h (0 Bft) 0 min 2,9 km/h (1 Bft)
13.10.2009 00:54 17,0 C 7,9 C 0,0 UV-I 0,0 C 57 % 92 % 0 % 1026,2 hPa 0,0 l/m 0,5 km/h (0 Bft) 0 min 0,0 km/h (0 Bft)
13.10.2009 00:56 17,0 C 7,8 C 0,0 UV-I 0,0 C 57 % 92 % 0 % 1026,3 hPa 0,0 l/m 0,7 km/h (0 Bft) 0 min 8,2 km/h (2 Bft)
13.10.2009 00:58 17,0 C 7,9 C 0,0 UV-I 0,0 C 57 % 92 % 0 % 1026,3 hPa 0,0 l/m 1,7 km/h (1 Bft) 0 min 2,4 km/h (1 Bft)
13.10.2009 01:00 17,0 C 7,9 C 0,0 UV-I 0,0 C 57 % 92 % 0 % 1026,3 hPa 0,0 l/m 2,2 km/h (1 Bft) 0 min 4,8 km/h (1 Bft)
13.10.2009 01:04 17,0 C 8,0 C 0,0 UV-I 0,0 C 57 % 92 % 0 % 1026,3 hPa 0,0 l/m 2,6 km/h (1 Bft) 0 min 2,9 km/h (1 Bft)
13.10.2009 01:06 17,0 C 8,0 C 0,0 UV-I 0,0 C 57 % 92 % 0 % 1026,3 hPa 0,0 l/m 2,6 km/h (1 Bft) 0 min 0,0 km/h (0 Bft)
13.10.2009 01:08 17,0 C 8,0 C 0,0 UV-I 0,0 C 57 % 92 % 0 % 1026,3 hPa 0,0 l/m 2,2 km/h (1 Bft) 0 min 0,0 km/h (0 Bft)
13.10.2009 01:10 17,0 C 7,9 C 0,0 UV-I 0,0 C 57 % 92 % 0 % 1026,3 hPa 0,0 l/m 1,7 km/h (1 Bft) 0 min 8,9 km/h (2 Bft)
13.10.2009 01:12 16,9 C 7,9 C 0,0 UV-I 0,0 C 57 % 92 % 0 % 1026,3 hPa 0,0 l/m 1,7 km/h (1 Bft) 0 min 3,1 km/h (1 Bft)
13.10.2009 01:16 16,9 C 7,9 C 0,0 UV-I 0,0 C 57 % 92 % 0 % 1026,1 hPa 0,0 l/m 1,0 km/h (0 Bft) 0 min 2,9 km/h (1 Bft)
13.10.2009 01:18 16,9 C 7,9 C 0,0 UV-I 0,0 C 57 % 92 % 0 % 1026,1 hPa 0,0 l/m 1,0 km/h (0 Bft) 0 min 0,0 km/h (0 Bft)
13.10.2009 01:22 16,9 C 7,9 C 0,0 UV-I 0,0 C 57 % 92 % 0 % 1026,1 hPa 0,0 l/m 1,0 km/h (0 Bft) 0 min 0,0 km/h (0 Bft)
13.10.2009 01:24 16,9 C 7,9 C 0,0 UV-I 0,0 C 57 % 92 % 0 % 1026,1 hPa 0,0 l/m 0,7 km/h (0 Bft) 0 min 0,0 km/h (0 Bft)
13.10.2009 01:26 16,9 C 7,9 C 0,0 UV-I 0,0 C 57 % 92 % 0 % 1026,1 hPa 0,0 l/m 0,7 km/h (0 Bft) 0 min 0,0 km/h (0 Bft)
13.10.2009 01:28 16,9 C 7,9 C 0,0 UV-I 0,0 C 57 % 92 % 0 % 1026,1 hPa 0,0 l/m 0,2 km/h (0 Bft) 0 min 0,0 km/h (0 Bft)
13.10.2009 01:32 16,8 C 7,9 C 0,0 UV-I 0,0 C 57 % 92 % 0 % 1026,1 hPa 0,0 l/m 0,2 km/h (0 Bft) 0 min 0,0 km/h (0 Bft)
13.10.2009 01:36 16,9 C 7,7 C 0,0 UV-I 0,0 C 57 % 92 % 0 % 1026,8 hPa 0,0 l/m 0,2 km/h (0 Bft) 0 min 0,0 km/h (0 Bft)
13.10.2009 01:40 16,8 C 7,7 C 0,0 UV-I 0,0 C 57 % 92 % 0 % 1026,8 hPa 0,0 l/m 0,2 km/h (0 Bft) 0 min 0,0 km/h (0 Bft)
13.10.2009 01:42 16,8 C 7,7 C 0,0 UV-I 0,0 C 57 % 92 % 0 % 1026,8 hPa 0,0 l/m 0,2 km/h (0 Bft) 0 min 0,0 km/h (0 Bft)
13.10.2009 01:44 16,8 C 7,6 C 0,0 UV-I 0,0 C 57 % 92 % 0 % 1026,8 hPa 0,0 l/m 0,2 km/h (0 Bft) 0 min 0,0 km/h (0 Bft)
13.10.2009 01:46 16,8 C 7,6 C 0,0 UV-I 0,0 C 57 % 92 % 0 % 1026,8 hPa 0,0 l/m 0,2 km/h (0 Bft) 0 min 0,0 km/h (0 Bft)
13.10.2009 01:48 16,9 C 7,6 C 0,0 UV-I 0,0 C 57 % 92 % 0 % 1026,8 hPa 0,0 l/m 0,2 km/h (0 Bft) 0 min 0,0 km/h (0 Bft)
13.10.2009 01:50 16,8 C 7,7 C 0,0 UV-I 0,0 C 57 % 92 % 0 % 1026,8 hPa 0,0 l/m 0,0 km/h (0 Bft) 0 min 0,0 km/h (0 Bft)
13.10.2009 01:52 16,8 C 7,6 C 0,0 UV-I 0,0 C 57 % 92 % 0 % 1026,8 hPa 0,0 l/m 0,0 km/h (0 Bft) 0 min 0,0 km/h (0 Bft)
13.10.2009 01:54 16,8 C 7,6 C 0,0 UV-I 0,0 C 57 % 92 % 0 % 1026,8 hPa 0,0 l/m 0,0 km/h (0 Bft) 0 min 0,0 km/h (0 Bft)
13.10.2009 01:56 16,8 C 7,6 C 0,0 UV-I 0,0 C 57 % 92 % 0 % 1026,5 hPa 0,0 l/m 0,2 km/h (0 Bft) 0 min 2,9 km/h (1 Bft)
13.10.2009 01:58 16,8 C 7,6 C 0,0 UV-I 0,0 C 57 % 92 % 0 % 1026,5 hPa 0,0 l/m 0,2 km/h (0 Bft) 0 min 0,0 km/h (0 Bft)
13.10.2009 02:02 16,8 C 7,6 C 0,0 UV-I 0,0 C 57 % 92 % 0 % 1026,5 hPa 0,0 l/m 0,2 km/h (0 Bft) 0 min 0,0 km/h (0 Bft)
13.10.2009 02:06 16,8 C 7,6 C 0,0 UV-I 0,0 C 57 % 92 % 0 % 1026,5 hPa 0,0 l/m 0,2 km/h (0 Bft) 0 min 0,0 km/h (0 Bft)
13.10.2009 02:08 16,8 C 7,6 C 0,0 UV-I 0,0 C 57 % 92 % 0 % 1026,5 hPa 0,0 l/m 0,2 km/h (0 Bft) 0 min 4,3 km/h (1 Bft)
13.10.2009 02:10 16,8 C 7,6 C 0,0 UV-I 0,0 C 57 % 92 % 0 % 1026,5 hPa 0,0 l/m 0,7 km/h (0 Bft) 0 min 0,0 km/h (0 Bft)
13.10.2009 02:12 16,8 C 7,6 C 0,0 UV-I 0,0 C 57 % 92 % 0 % 1026,5 hPa 0,0 l/m 0,7 km/h (0 Bft) 0 min 2,9 km/h (1 Bft)
13.10.2009 02:14 16,8 C 7,7 C 0,0 UV-I 0,0 C 57 % 92 % 0 % 1026,5 hPa 0,0 l/m 1,0 km/h (0 Bft) 0 min 5,5 km/h (1 Bft)
13.10.2009 02:16 16,8 C 7,7 C 0,0 UV-I 0,0 C 57 % 93 % 0 % 1026,6 hPa 0,0 l/m 1,2 km/h (1 Bft) 0 min 7,2 km/h (2 Bft)
13.10.2009 02:18 16,8 C 7,8 C 0,0 UV-I 0,0 C 57 % 93 % 0 % 1026,6 hPa 0,0 l/m 1,2 km/h (1 Bft) 0 min 3,1 km/h (1 Bft)
13.10.2009 02:26 16,8 C 7,9 C 0,0 UV-I 0,0 C 57 % 93 % 0 % 1026,6 hPa 0,0 l/m 1,7 km/h (1 Bft) 0 min 2,6 km/h (1 Bft)
13.10.2009 02:28 16,8 C 7,8 C 0,0 UV-I 0,0 C 57 % 92 % 0 % 1026,6 hPa 0,0 l/m 1,2 km/h (1 Bft) 0 min 7,0 km/h (2 Bft)
13.10.2009 02:30 16,8 C 7,9 C 0,0 UV-I 0,0 C 57 % 92 % 0 % 1026,6 hPa 0,0 l/m 1,9 km/h (1 Bft) 0 min 4,1 km/h (1 Bft)
13.10.2009 02:32 16,8 C 7,9 C 0,0 UV-I 0,0 C 57 % 92 % 0 % 1026,6 hPa 0,0 l/m 2,4 km/h (1 Bft) 0 min 5,5 km/h (1 Bft)
13.10.2009 02:36 16,8 C 8,0 C 0,0 UV-I 0,0 C 57 % 92 % 0 % 1026,8 hPa 0,0 l/m 1,9 km/h (1 Bft) 0 min 2,6 km/h (1 Bft)
13.10.2009 02:38 16,8 C 8,0 C 0,0 UV-I 0,0 C 57 % 92 % 0 % 1026,8 hPa 0,0 l/m 1,9 km/h (1 Bft) 0 min 2,9 km/h (1 Bft)
13.10.2009 02:40 16,8 C 8,0 C 0,0 UV-I 0,0 C 57 % 92 % 0 % 1026,8 hPa 0,0 l/m 1,9 km/h (1 Bft) 0 min 10,3 km/h (2 Bft)
13.10.2009 02:42 16,8 C 8,0 C 0,0 UV-I 0,0 C 57 % 92 % 0 % 1026,8 hPa 0,0 l/m 2,2 km/h (1 Bft) 0 min 0,0 km/h (0 Bft)
13.10.2009 02:44 16,8 C 8,1 C 0,0 UV-I 0,0 C 57 % 92 % 0 % 1026,8 hPa 0,0 l/m 2,4 km/h (1 Bft) 0 min 5,3 km/h (1 Bft)
13.10.2009 02:46 16,8 C 8,1 C 0,0 UV-I 0,0 C 57 % 92 % 0 % 1026,8 hPa 0,0 l/m 2,4 km/h (1 Bft) 0 min 0,0 km/h (0 Bft)
13.10.2009 02:48 16,8 C 8,0 C 0,0 UV-I 0,0 C 57 % 92 % 0 % 1026,8 hPa 0,0 l/m 2,4 km/h (1 Bft) 0 min 0,0 km/h (0 Bft)
13.10.2009 02:50 16,8 C 8,1 C 0,0 UV-I 0,0 C 57 % 91 % 0 % 1026,8 hPa 0,0 l/m 2,2 km/h (1 Bft) 0 min 0,0 km/h (0 Bft)
13.10.2009 02:54 16,8 C 8,0 C 0,0 UV-I 0,0 C 57 % 91 % 0 % 1026,8 hPa 0,0 l/m 1,4 km/h (1 Bft) 0 min 2,6 km/h (1 Bft)
13.10.2009 02:56 16,8 C 8,1 C 0,0 UV-I 0,0 C 57 % 91 % 0 % 1026,6 hPa 0,0 l/m 1,7 km/h (1 Bft) 0 min 5,8 km/h (2 Bft)
13.10.2009 02:58 16,8 C 8,0 C 0,0 UV-I 0,0 C 56 % 91 % 0 % 1026,6 hPa 0,0 l/m 1,7 km/h (1 Bft) 0 min 0,0 km/h (0 Bft)
13.10.2009 03:00 16,8 C 8,0 C 0,0 UV-I 0,0 C 57 % 91 % 0 % 1026,6 hPa 0,0 l/m 1,7 km/h (1 Bft) 0 min 6,0 km/h (2 Bft)
13.10.2009 03:02 16,8 C 8,0 C 0,0 UV-I 0,0 C 57 % 91 % 0 % 1026,6 hPa 0,0 l/m 1,7 km/h (1 Bft) 0 min 0,0 km/h (0 Bft)
13.10.2009 03:04 16,8 C 8,0 C 0,0 UV-I 0,0 C 57 % 91 % 0 % 1026,6 hPa 0,0 l/m 1,7 km/h (1 Bft) 0 min 0,0 km/h (0 Bft)
13.10.2009 03:06 16,8 C 8,0 C 0,0 UV-I 0,0 C 57 % 91 % 0 % 1026,6 hPa 0,0 l/m 1,7 km/h (1 Bft) 0 min 0,0 km/h (0 Bft)
13.10.2009 03:08 16,8 C 7,9 C 0,0 UV-I 0,0 C 56 % 91 % 0 % 1026,6 hPa 0,0 l/m 1,2 km/h (1 Bft) 0 min 0,0 km/h (0 Bft)
13.10.2009 03:10 16,8 C 7,9 C 0,0 UV-I 0,0 C 56 % 91 % 0 % 1026,6 hPa 0,0 l/m 1,7 km/h (1 Bft) 0 min 5,1 km/h (1 Bft)
13.10.2009 03:12 16,8 C 7,9 C 0,0 UV-I 0,0 C 56 % 91 % 0 % 1026,6 hPa 0,0 l/m 1,9 km/h (1 Bft) 0 min 4,8 km/h (1 Bft)
13.10.2009 03:20 16,8 C 7,9 C 0,0 UV-I 0,0 C 56 % 91 % 0 % 1026,4 hPa 0,0 l/m 1,2 km/h (1 Bft) 0 min 3,8 km/h (1 Bft)
13.10.2009 03:22 16,8 C 7,8 C 0,0 UV-I 0,0 C 56 % 91 % 0 % 1026,4 hPa 0,0 l/m 0,5 km/h (0 Bft) 0 min 0,0 km/h (0 Bft)
13.10.2009 03:24 16,7 C 7,7 C 0,0 UV-I 0,0 C 56 % 91 % 0 % 1026,4 hPa 0,0 l/m 0,2 km/h (0 Bft) 0 min 0,0 km/h (0 Bft)
13.10.2009 03:26 16,7 C 7,7 C 0,0 UV-I 0,0 C 56 % 91 % 0 % 1026,4 hPa 0,0 l/m 0,0 km/h (0 Bft) 0 min 2,6 km/h (1 Bft)
13.10.2009 03:28 16,7 C 7,6 C 0,0 UV-I 0,0 C 56 % 91 % 0 % 1026,4 hPa 0,0 l/m 0,0 km/h (0 Bft) 0 min 0,0 km/h (0 Bft)
13.10.2009 03:30 16,7 C 7,6 C 0,0 UV-I 0,0 C 56 % 91 % 0 % 1026,4 hPa 0,0 l/m 0,0 km/h (0 Bft) 0 min 0,0 km/h (0 Bft)
13.10.2009 03:36 16,7 C 7,6 C 0,0 UV-I 0,0 C 56 % 91 % 0 % 1026,6 hPa 0,0 l/m 0,0 km/h (0 Bft) 0 min 0,0 km/h (0 Bft)
13.10.2009 03:38 16,6 C 7,5 C 0,0 UV-I 0,0 C 56 % 91 % 0 % 1026,6 hPa 0,0 l/m 0,0 km/h (0 Bft) 0 min 0,0 km/h (0 Bft)
13.10.2009 03:40 16,6 C 7,5 C 0,0 UV-I 0,0 C 56 % 91 % 0 % 1026,6 hPa 0,0 l/m 0,0 km/h (0 Bft) 0 min 0,0 km/h (0 Bft)
13.10.2009 03:42 16,6 C 7,5 C 0,0 UV-I 0,0 C 56 % 91 % 0 % 1026,6 hPa 0,0 l/m 0,0 km/h (0 Bft) 0 min 0,0 km/h (0 Bft)
13.10.2009 03:44 16,6 C 7,5 C 0,0 UV-I 0,0 C 56 % 91 % 0 % 1026,6 hPa 0,0 l/m 0,0 km/h (0 Bft) 0 min 0,0 km/h (0 Bft)
13.10.2009 03:46 16,6 C 7,5 C 0,0 UV-I 0,0 C 56 % 91 % 0 % 1026,6 hPa 0,0 l/m 0,0 km/h (0 Bft) 0 min 0,0 km/h (0 Bft)
13.10.2009 03:48 16,6 C 7,4 C 0,0 UV-I 0,0 C 56 % 91 % 0 % 1026,6 hPa 0,0 l/m 0,0 km/h (0 Bft) 0 min 0,0 km/h (0 Bft)
13.10.2009 03:50 16,6 C 7,4 C 0,0 UV-I 0,0 C 56 % 91 % 0 % 1026,6 hPa 0,0 l/m 0,0 km/h (0 Bft) 0 min 0,0 km/h (0 Bft)
13.10.2009 03:52 16,6 C 7,5 C 0,0 UV-I 0,0 C 56 % 91 % 0 % 1026,6 hPa 0,0 l/m 0,0 km/h (0 Bft) 0 min 0,0 km/h (0 Bft)
13.10.2009 03:54 16,6 C 7,5 C 0,0 UV-I 0,0 C 56 % 91 % 0 % 1026,6 hPa 0,0 l/m 0,0 km/h (0 Bft) 0 min 0,0 km/h (0 Bft)
13.10.2009 03:56 16,6 C 7,4 C 0,0 UV-I 0,0 C 56 % 91 % 0 % 1026,2 hPa 0,0 l/m 0,0 km/h (0 Bft) 0 min 0,0 km/h (0 Bft)
13.10.2009 03:58 16,6 C 7,4 C 0,0 UV-I 0,0 C 56 % 91 % 0 % 1026,2 hPa 0,0 l/m 0,0 km/h (0 Bft) 0 min 0,0 km/h (0 Bft)
13.10.2009 04:00 16,6 C 7,3 C 0,0 UV-I 0,0 C 56 % 91 % 0 % 1026,2 hPa 0,0 l/m 0,0 km/h (0 Bft) 0 min 0,0 km/h (0 Bft)
13.10.2009 04:04 16,6 C 7,2 C 0,0 UV-I 0,0 C 56 % 91 % 0 % 1026,2 hPa 0,0 l/m 0,0 km/h (0 Bft) 0 min 0,0 km/h (0 Bft)
13.10.2009 04:06 16,6 C 7,2 C 0,0 UV-I 0,0 C 56 % 91 % 0 % 1026,2 hPa 0,0 l/m 0,0 km/h (0 Bft) 0 min 0,0 km/h (0 Bft)
13.10.2009 04:10 16,5 C 7,2 C 0,0 UV-I 0,0 C 56 % 91 % 0 % 1026,2 hPa 0,0 l/m 0,0 km/h (0 Bft) 0 min 0,0 km/h (0 Bft)
13.10.2009 04:13 16,5 C 7,1 C 0,0 UV-I 0,0 C 56 % 91 % 0 % 1026,2 hPa 0,0 l/m 0,0 km/h (0 Bft) 0 min 0,0 km/h (0 Bft)
13.10.2009 04:15 16,5 C 7,1 C 0,0 UV-I 0,0 C 56 % 91 % 0 % 1026,8 hPa 0,0 l/m 0,0 km/h (0 Bft) 0 min 0,0 km/h (0 Bft)
13.10.2009 04:16 16,5 C 7,1 C 0,0 UV-I 0,0 C 56 % 91 % 0 % 1026,8 hPa 0,0 l/m 0,0 km/h (0 Bft) 0 min 0,0 km/h (0 Bft)
13.10.2009 04:18 16,5 C 7,1 C 0,0 UV-I 0,0 C 56 % 91 % 0 % 1026,8 hPa 0,0 l/m 0,0 km/h (0 Bft) 0 min 3,6 km/h (1 Bft)
13.10.2009 04:20 16,5 C 7,0 C 0,0 UV-I 0,0 C 56 % 91 % 0 % 1026,8 hPa 0,0 l/m 0,2 km/h (0 Bft) 0 min 3,1 km/h (1 Bft)
13.10.2009 04:22 16,5 C 7,1 C 0,0 UV-I 0,0 C 56 % 91 % 0 % 1026,8 hPa 0,0 l/m 0,2 km/h (0 Bft) 0 min 0,0 km/h (0 Bft)
13.10.2009 04:24 16,5 C 7,0 C 0,0 UV-I 0,0 C 56 % 91 % 0 % 1026,8 hPa 0,0 l/m 0,2 km/h (0 Bft) 0 min 0,0 km/h (0 Bft)
13.10.2009 04:26 16,5 C 7,1 C 0,0 UV-I 0,0 C 56 % 91 % 0 % 1026,8 hPa 0,0 l/m 0,2 km/h (0 Bft) 0 min 0,0 km/h (0 Bft)
13.10.2009 04:28 16,5 C 7,1 C 0,0 UV-I 0,0 C 56 % 91 % 0 % 1026,8 hPa 0,0 l/m 0,2 km/h (0 Bft) 0 min 0,0 km/h (0 Bft)
13.10.2009 04:30 16,5 C 7,0 C 0,0 UV-I 0,0 C 56 % 91 % 0 % 1026,8 hPa 0,0 l/m 0,2 km/h (0 Bft) 0 min 0,0 km/h (0 Bft)
13.10.2009 04:32 16,5 C 7,0 C 0,0 UV-I 0,0 C 56 % 91 % 0 % 1026,8 hPa 0,0 l/m 0,2 km/h (0 Bft) 0 min 2,4 km/h (1 Bft)
13.10.2009 04:34 16,5 C 7,0 C 0,0 UV-I 0,0 C 56 % 92 % 0 % 1026,8 hPa 0,0 l/m 0,2 km/h (0 Bft) 0 min 0,0 km/h (0 Bft)
13.10.2009 04:36 16,5 C 7,0 C 0,0 UV-I 0,0 C 56 % 92 % 0 % 1026,5 hPa 0,0 l/m 0,2 km/h (0 Bft) 0 min 0,0 km/h (0 Bft)
13.10.2009 04:38 16,5 C 6,9 C 0,0 UV-I 0,0 C 56 % 91 % 0 % 1026,5 hPa 0,0 l/m 0,2 km/h (0 Bft) 0 min 0,0 km/h (0 Bft)
13.10.2009 04:40 16,5 C 6,9 C 0,0 UV-I 0,0 C 56 % 92 % 0 % 1026,5 hPa 0,0 l/m 0,0 km/h (0 Bft) 0 min 0,0 km/h (0 Bft)
13.10.2009 04:42 16,5 C 6,9 C 0,0 UV-I 0,0 C 56 % 92 % 0 % 1026,5 hPa 0,0 l/m 0,2 km/h (0 Bft) 0 min 4,3 km/h (1 Bft)
13.10.2009 04:44 16,5 C 6,9 C 0,0 UV-I 0,0 C 56 % 92 % 0 % 1026,5 hPa 0,0 l/m 0,2 km/h (0 Bft) 0 min 0,0 km/h (0 Bft)
13.10.2009 04:46 16,4 C 6,9 C 0,0 UV-I 0,0 C 56 % 92 % 0 % 1026,5 hPa 0,0 l/m 0,2 km/h (0 Bft) 0 min 0,0 km/h (0 Bft)
13.10.2009 04:48 16,4 C 6,8 C 0,0 UV-I 0,0 C 56 % 92 % 0 % 1026,5 hPa 0,0 l/m 0,2 km/h (0 Bft) 0 min 0,0 km/h (0 Bft)
13.10.2009 04:50 16,4 C 6,9 C 0,0 UV-I 0,0 C 56 % 92 % 0 % 1026,5 hPa 0,0 l/m 0,2 km/h (0 Bft) 0 min 0,0 km/h (0 Bft)
13.10.2009 04:52 16,4 C 6,8 C 0,0 UV-I 0,0 C 56 % 92 % 0 % 1026,5 hPa 0,0 l/m 0,2 km/h (0 Bft) 0 min 0,0 km/h (0 Bft)
13.10.2009 04:54 16,4 C 6,9 C 0,0 UV-I 0,0 C 56 % 92 % 0 % 1026,5 hPa 0,0 l/m 0,2 km/h (0 Bft) 0 min 0,0 km/h (0 Bft)
13.10.2009 04:56 16,4 C 6,8 C 0,0 UV-I 0,0 C 56 % 92 % 0 % 1026,1 hPa 0,0 l/m 0,0 km/h (0 Bft) 0 min 0,0 km/h (0 Bft)
13.10.2009 04:58 16,4 C 6,8 C 0,0 UV-I 0,0 C 56 % 92 % 0 % 1026,1 hPa 0,0 l/m 0,2 km/h (0 Bft) 0 min 0,0 km/h (0 Bft)
13.10.2009 05:00 16,4 C 6,8 C 0,0 UV-I 0,0 C 56 % 92 % 0 % 1026,1 hPa 0,0 l/m 0,2 km/h (0 Bft) 0 min 0,0 km/h (0 Bft)
13.10.2009 05:02 16,4 C 6,8 C 0,0 UV-I 0,0 C 56 % 92 % 0 % 1026,1 hPa 0,0 l/m 0,5 km/h (0 Bft) 0 min 0,0 km/h (0 Bft)
13.10.2009 05:04 16,4 C 6,8 C 0,0 UV-I 0,0 C 56 % 92 % 0 % 1026,1 hPa 0,0 l/m 0,5 km/h (0 Bft) 0 min 0,0 km/h (0 Bft)
13.10.2009 05:06 16,4 C 6,7 C 0,0 UV-I 0,0 C 56 % 92 % 0 % 1026,1 hPa 0,0 l/m 0,5 km/h (0 Bft) 0 min 0,0 km/h (0 Bft)
13.10.2009 05:08 16,4 C 6,7 C 0,0 UV-I 0,0 C 56 % 92 % 0 % 1026,1 hPa 0,0 l/m 0,2 km/h (0 Bft) 0 min 0,0 km/h (0 Bft)
13.10.2009 05:10 16,4 C 6,7 C 0,0 UV-I 0,0 C 56 % 92 % 0 % 1026,1 hPa 0,0 l/m 0,2 km/h (0 Bft) 0 min 0,0 km/h (0 Bft)
13.10.2009 05:12 16,4 C 6,7 C 0,0 UV-I 0,0 C 56 % 92 % 0 % 1026,1 hPa 0,0 l/m 0,0 km/h (0 Bft) 0 min 0,0 km/h (0 Bft)
13.10.2009 05:14 16,4 C 6,6 C 0,0 UV-I 0,0 C 56 % 92 % 0 % 1026,1 hPa 0,0 l/m 0,0 km/h (0 Bft) 0 min 0,0 km/h (0 Bft)
13.10.2009 05:16 16,4 C 6,6 C 0,0 UV-I 0,0 C 56 % 92 % 0 % 1026,6 hPa 0,0 l/m 0,0 km/h (0 Bft) 0 min 0,0 km/h (0 Bft)
13.10.2009 05:18 16,4 C 6,7 C 0,0 UV-I 0,0 C 56 % 92 % 0 % 1026,6 hPa 0,0 l/m 0,0 km/h (0 Bft) 0 min 0,0 km/h (0 Bft)
13.10.2009 05:20 16,4 C 6,7 C 0,0 UV-I 0,0 C 56 % 92 % 0 % 1026,6 hPa 0,0 l/m 0,0 km/h (0 Bft) 0 min 0,0 km/h (0 Bft)
13.10.2009 05:22 16,4 C 6,7 C 0,0 UV-I 0,0 C 56 % 92 % 0 % 1026,6 hPa 0,0 l/m 0,0 km/h (0 Bft) 0 min 0,0 km/h (0 Bft)
13.10.2009 05:24 16,4 C 6,6 C 0,0 UV-I 0,0 C 56 % 92 % 0 % 1026,6 hPa 0,0 l/m 0,0 km/h (0 Bft) 0 min 3,6 km/h (1 Bft)
13.10.2009 05:26 16,4 C 6,6 C 0,0 UV-I 0,0 C 56 % 92 % 0 % 1026,6 hPa 0,0 l/m 0,2 km/h (0 Bft) 0 min 0,0 km/h (0 Bft)
13.10.2009 05:28 16,4 C 6,6 C 0,0 UV-I 0,0 C 56 % 92 % 0 % 1026,6 hPa 0,0 l/m 0,2 km/h (0 Bft) 0 min 0,0 km/h (0 Bft)
13.10.2009 05:30 16,4 C 6,6 C 0,0 UV-I 0,0 C 56 % 92 % 0 % 1026,6 hPa 0,0 l/m 0,2 km/h (0 Bft) 0 min 0,0 km/h (0 Bft)
13.10.2009 05:32 16,4 C 6,5 C 0,0 UV-I 0,0 C 56 % 92 % 0 % 1026,6 hPa 0,0 l/m 0,7 km/h (0 Bft) 0 min 4,3 km/h (1 Bft)
13.10.2009 05:34 16,4 C 6,6 C 0,0 UV-I 0,0 C 56 % 92 % 0 % 1026,6 hPa 0,0 l/m 0,7 km/h (0 Bft) 0 min 0,0 km/h (0 Bft)
13.10.2009 05:36 16,4 C 6,6 C 0,0 UV-I 0,0 C 56 % 92 % 0 % 1026,2 hPa 0,0 l/m 0,5 km/h (0 Bft) 0 min 0,0 km/h (0 Bft)
13.10.2009 05:38 16,4 C 6,5 C 0,0 UV-I 0,0 C 56 % 92 % 0 % 1026,2 hPa 0,0 l/m 0,5 km/h (0 Bft) 0 min 0,0 km/h (0 Bft)
13.10.2009 05:40 16,4 C 6,6 C 0,0 UV-I 0,0 C 56 % 92 % 0 % 1026,2 hPa 0,0 l/m 0,5 km/h (0 Bft) 0 min 0,0 km/h (0 Bft)
13.10.2009 05:42 16,4 C 6,5 C 0,0 UV-I 0,0 C 56 % 92 % 0 % 1026,2 hPa 0,0 l/m 0,2 km/h (0 Bft) 0 min 0,0 km/h (0 Bft)
13.10.2009 05:44 16,4 C 6,6 C 0,0 UV-I 0,0 C 56 % 92 % 0 % 1026,2 hPa 0,0 l/m 0,0 km/h (0 Bft) 0 min 0,0 km/h (0 Bft)
13.10.2009 05:46 16,4 C 6,5 C 0,0 UV-I 0,0 C 56 % 92 % 0 % 1026,2 hPa 0,0 l/m 0,0 km/h (0 Bft) 0 min 0,0 km/h (0 Bft)
13.10.2009 05:48 16,4 C 6,6 C 0,0 UV-I 0,0 C 56 % 92 % 0 % 1026,2 hPa 0,0 l/m 0,0 km/h (0 Bft) 0 min 0,0 km/h (0 Bft)
13.10.2009 05:50 16,4 C 6,6 C 0,0 UV-I 0,0 C 56 % 92 % 0 % 1026,2 hPa 0,0 l/m 0,0 km/h (0 Bft) 0 min 0,0 km/h (0 Bft)
13.10.2009 05:52 16,4 C 6,6 C 0,0 UV-I 0,0 C 56 % 92 % 0 % 1026,2 hPa 0,0 l/m 0,0 km/h (0 Bft) 0 min 0,0 km/h (0 Bft)
13.10.2009 05:54 16,4 C 6,5 C 0,0 UV-I 0,0 C 56 % 92 % 0 % 1026,2 hPa 0,0 l/m 0,0 km/h (0 Bft) 0 min 0,0 km/h (0 Bft)
13.10.2009 05:56 16,4 C 6,5 C 0,0 UV-I 0,0 C 56 % 92 % 0 % 1026,4 hPa 0,0 l/m 0,0 km/h (0 Bft) 0 min 0,0 km/h (0 Bft)
13.10.2009 05:58 16,4 C 6,5 C 0,0 UV-I 0,0 C 56 % 92 % 0 % 1026,4 hPa 0,0 l/m 0,0 km/h (0 Bft) 0 min 0,0 km/h (0 Bft)
13.10.2009 06:00 16,4 C 6,5 C 0,0 UV-I 0,0 C 56 % 92 % 0 % 1026,4 hPa 0,0 l/m 0,0 km/h (0 Bft) 0 min 0,0 km/h (0 Bft)
13.10.2009 06:02 16,4 C 6,5 C 0,0 UV-I 0,0 C 56 % 92 % 0 % 1026,4 hPa 0,0 l/m 0,0 km/h (0 Bft) 0 min 0,0 km/h (0 Bft)
13.10.2009 06:04 16,4 C 6,5 C 0,0 UV-I 0,0 C 56 % 92 % 0 % 1026,4 hPa 0,0 l/m 0,0 km/h (0 Bft) 0 min 0,0 km/h (0 Bft)
13.10.2009 06:06 16,4 C 6,6 C 0,0 UV-I 0,0 C 56 % 92 % 0 % 1026,4 hPa 0,0 l/m 0,0 km/h (0 Bft) 0 min 0,0 km/h (0 Bft)
13.10.2009 06:08 16,4 C 6,6 C 0,0 UV-I 0,0 C 56 % 92 % 0 % 1026,4 hPa 0,0 l/m 0,0 km/h (0 Bft) 0 min 0,0 km/h (0 Bft)
13.10.2009 06:10 16,4 C 6,6 C 0,0 UV-I 0,0 C 56 % 92 % 0 % 1026,4 hPa 0,0 l/m 0,0 km/h (0 Bft) 0 min 0,0 km/h (0 Bft)
13.10.2009 06:12 16,4 C 6,6 C 0,0 UV-I 0,0 C 56 % 92 % 0 % 1026,4 hPa 0,0 l/m 0,0 km/h (0 Bft) 0 min 0,0 km/h (0 Bft)
13.10.2009 06:14 16,4 C 6,6 C 0,0 UV-I 0,0 C 56 % 92 % 0 % 1026,4 hPa 0,0 l/m 0,0 km/h (0 Bft) 0 min 0,0 km/h (0 Bft)
13.10.2009 06:16 16,4 C 6,6 C 0,0 UV-I 0,0 C 56 % 92 % 0 % 1026,5 hPa 0,0 l/m 0,0 km/h (0 Bft) 0 min 0,0 km/h (0 Bft)
13.10.2009 06:18 16,4 C 6,6 C 0,0 UV-I 0,0 C 56 % 92 % 0 % 1026,5 hPa 0,0 l/m 0,0 km/h (0 Bft) 0 min 0,0 km/h (0 Bft)
13.10.2009 06:20 16,4 C 6,6 C 0,0 UV-I 0,0 C 56 % 93 % 0 % 1026,5 hPa 0,0 l/m 0,0 km/h (0 Bft) 0 min 0,0 km/h (0 Bft)
13.10.2009 06:22 16,4 C 6,6 C 0,0 UV-I 0,0 C 56 % 92 % 0 % 1026,5 hPa 0,0 l/m 0,0 km/h (0 Bft) 0 min 0,0 km/h (0 Bft)
13.10.2009 06:24 16,4 C 6,6 C 0,0 UV-I 0,0 C 56 % 92 % 0 % 1026,5 hPa 0,0 l/m 0,0 km/h (0 Bft) 0 min 0,0 km/h (0 Bft)
13.10.2009 06:26 16,4 C 6,7 C 0,0 UV-I 0,0 C 56 % 93 % 0 % 1026,5 hPa 0,0 l/m 0,0 km/h (0 Bft) 0 min 0,0 km/h (0 Bft)
13.10.2009 06:28 16,4 C 6,7 C 0,0 UV-I 0,0 C 56 % 93 % 0 % 1026,5 hPa 0,0 l/m 0,0 km/h (0 Bft) 0 min 0,0 km/h (0 Bft)
13.10.2009 06:32 16,4 C 6,7 C 0,0 UV-I 0,0 C 56 % 93 % 0 % 1026,5 hPa 0,0 l/m 0,2 km/h (0 Bft) 0 min 3,6 km/h (1 Bft)
13.10.2009 06:34 16,4 C 6,7 C 0,0 UV-I 0,0 C 56 % 92 % 0 % 1026,5 hPa 0,0 l/m 0,7 km/h (0 Bft) 0 min 4,6 km/h (1 Bft)
13.10.2009 06:36 16,4 C 6,7 C 0,0 UV-I 0,0 C 56 % 93 % 0 % 1026,6 hPa 0,0 l/m 0,7 km/h (0 Bft) 0 min 0,0 km/h (0 Bft)
13.10.2009 06:38 16,4 C 6,6 C 0,0 UV-I 0,0 C 56 % 93 % 0 % 1026,6 hPa 0,0 l/m 0,7 km/h (0 Bft) 0 min 0,0 km/h (0 Bft)
13.10.2009 06:40 16,4 C 6,6 C 0,0 UV-I 0,0 C 56 % 92 % 0 % 1026,6 hPa 0,0 l/m 0,7 km/h (0 Bft) 0 min 0,0 km/h (0 Bft)
13.10.2009 06:42 16,4 C 6,6 C 0,0 UV-I 0,0 C 56 % 92 % 0 % 1026,6 hPa 0,0 l/m 0,7 km/h (0 Bft) 0 min 0,0 km/h (0 Bft)
13.10.2009 06:44 16,4 C 6,7 C 0,0 UV-I 0,0 C 56 % 92 % 0 % 1026,6 hPa 0,0 l/m 0,7 km/h (0 Bft) 0 min 0,0 km/h (0 Bft)
13.10.2009 06:46 16,4 C 6,7 C 0,0 UV-I 0,0 C 56 % 92 % 0 % 1026,6 hPa 0,0 l/m 0,2 km/h (0 Bft) 0 min 0,0 km/h (0 Bft)
13.10.2009 06:48 16,4 C 6,7 C 0,0 UV-I 0,0 C 56 % 92 % 0 % 1026,6 hPa 0,0 l/m 0,0 km/h (0 Bft) 0 min 0,0 km/h (0 Bft)
13.10.2009 06:50 16,4 C 6,7 C 0,0 UV-I 0,0 C 56 % 92 % 0 % 1026,6 hPa 0,0 l/m 0,0 km/h (0 Bft) 0 min 0,0 km/h (0 Bft)
13.10.2009 06:52 16,4 C 6,7 C 0,0 UV-I 0,0 C 56 % 92 % 0 % 1026,6 hPa 0,0 l/m 0,0 km/h (0 Bft) 0 min 0,0 km/h (0 Bft)
13.10.2009 06:54 16,4 C 6,7 C 0,0 UV-I 0,0 C 56 % 92 % 0 % 1026,6 hPa 0,0 l/m 0,0 km/h (0 Bft) 0 min 0,0 km/h (0 Bft)
13.10.2009 06:56 16,4 C 6,6 C 0,0 UV-I 0,0 C 56 % 92 % 0 % 1026,8 hPa 0,0 l/m 0,0 km/h (0 Bft) 0 min 0,0 km/h (0 Bft)
13.10.2009 06:58 16,4 C 6,6 C 0,0 UV-I 0,0 C 56 % 92 % 0 % 1026,8 hPa 0,0 l/m 0,2 km/h (0 Bft) 0 min 2,9 km/h (1 Bft)
13.10.2009 07:00 16,4 C 6,6 C 0,0 UV-I 0,0 C 56 % 92 % 0 % 1026,8 hPa 0,0 l/m 0,2 km/h (0 Bft) 0 min 3,1 km/h (1 Bft)
13.10.2009 07:02 16,4 C 6,7 C 0,0 UV-I 0,0 C 56 % 92 % 0 % 1026,8 hPa 0,0 l/m 0,5 km/h (0 Bft) 0 min 0,0 km/h (0 Bft)
13.10.2009 07:04 16,4 C 6,6 C 0,0 UV-I 0,0 C 56 % 92 % 0 % 1026,8 hPa 0,0 l/m 0,5 km/h (0 Bft) 0 min 0,0 km/h (0 Bft)
13.10.2009 07:06 16,4 C 6,6 C 0,0 UV-I 0,0 C 56 % 92 % 0 % 1026,8 hPa 0,0 l/m 0,5 km/h (0 Bft) 0 min 0,0 km/h (0 Bft)
13.10.2009 07:08 16,4 C 6,6 C 0,0 UV-I 0,0 C 55 % 92 % 0 % 1026,8 hPa 0,0 l/m 0,5 km/h (0 Bft) 0 min 0,0 km/h (0 Bft)
13.10.2009 07:10 16,4 C 6,5 C 0,0 UV-I 0,0 C 55 % 92 % 0 % 1026,8 hPa 0,0 l/m 0,2 km/h (0 Bft) 0 min 0,0 km/h (0 Bft)
13.10.2009 07:12 16,2 C 6,5 C 0,0 UV-I 0,0 C 55 % 92 % 0 % 1026,8 hPa 0,0 l/m 0,0 km/h (0 Bft) 0 min 0,0 km/h (0 Bft)
13.10.2009 07:14 16,2 C 6,5 C 0,0 UV-I 0,0 C 55 % 92 % 0 % 1026,8 hPa 0,0 l/m 0,0 km/h (0 Bft) 0 min 0,0 km/h (0 Bft)
13.10.2009 07:16 16,3 C 6,5 C 0,0 UV-I 0,0 C 55 % 92 % 0 % 1026,9 hPa 0,0 l/m 0,0 km/h (0 Bft) 0 min 0,0 km/h (0 Bft)
13.10.2009 07:18 16,3 C 6,5 C 0,0 UV-I 0,0 C 55 % 92 % 0 % 1026,9 hPa 0,0 l/m 0,2 km/h (0 Bft) 0 min 2,6 km/h (1 Bft)
13.10.2009 07:20 16,2 C 6,4 C 0,0 UV-I 0,0 C 55 % 92 % 0 % 1026,9 hPa 0,0 l/m 0,2 km/h (0 Bft) 0 min 3,4 km/h (1 Bft)
13.10.2009 07:22 16,2 C 6,4 C 0,0 UV-I 0,0 C 55 % 92 % 0 % 1026,9 hPa 0,0 l/m 0,2 km/h (0 Bft) 0 min 0,0 km/h (0 Bft)
13.10.2009 07:24 16,2 C 6,4 C 0,0 UV-I 0,0 C 55 % 92 % 0 % 1026,9 hPa 0,0 l/m 0,2 km/h (0 Bft) 0 min 0,0 km/h (0 Bft)
13.10.2009 07:26 16,2 C 6,5 C 0,0 UV-I 0,0 C 55 % 92 % 0 % 1026,9 hPa 0,0 l/m 0,2 km/h (0 Bft) 0 min 0,0 km/h (0 Bft)
13.10.2009 07:28 16,2 C 6,4 C 0,0 UV-I 0,0 C 55 % 92 % 0 % 1026,9 hPa 0,0 l/m 0,2 km/h (0 Bft) 0 min 0,0 km/h (0 Bft)
13.10.2009 07:30 16,2 C 6,4 C 0,0 UV-I 0,0 C 55 % 92 % 0 % 1026,9 hPa 0,0 l/m 0,0 km/h (0 Bft) 0 min 0,0 km/h (0 Bft)
13.10.2009 07:32 16,2 C 6,3 C 0,0 UV-I 0,0 C 55 % 92 % 0 % 1026,9 hPa 0,0 l/m 0,0 km/h (0 Bft) 0 min 0,0 km/h (0 Bft)
13.10.2009 07:34 16,2 C 6,3 C 0,0 UV-I 0,0 C 55 % 92 % 0 % 1026,9 hPa 0,0 l/m 0,0 km/h (0 Bft) 0 min 0,0 km/h (0 Bft)
13.10.2009 07:36 16,2 C 6,3 C 0,0 UV-I 0,0 C 55 % 92 % 0 % 1026,8 hPa 0,0 l/m 0,0 km/h (0 Bft) 0 min 0,0 km/h (0 Bft)
13.10.2009 07:38 16,2 C 6,3 C 0,0 UV-I 0,0 C 55 % 92 % 0 % 1026,8 hPa 0,0 l/m 0,0 km/h (0 Bft) 0 min 0,0 km/h (0 Bft)
13.10.2009 07:40 16,2 C 6,3 C 0,0 UV-I 0,0 C 55 % 92 % 0 % 1026,8 hPa 0,0 l/m 0,0 km/h (0 Bft) 0 min 0,0 km/h (0 Bft)
13.10.2009 07:42 16,2 C 6,3 C 0,0 UV-I 0,0 C 55 % 92 % 0 % 1026,8 hPa 0,0 l/m 0,0 km/h (0 Bft) 0 min 0,0 km/h (0 Bft)
13.10.2009 07:44 16,1 C 6,3 C 0,0 UV-I 0,0 C 55 % 92 % 0 % 1026,8 hPa 0,0 l/m 0,0 km/h (0 Bft) 0 min 0,0 km/h (0 Bft)
13.10.2009 07:46 16,1 C 6,3 C 0,0 UV-I 0,0 C 55 % 92 % 0 % 1026,8 hPa 0,0 l/m 0,0 km/h (0 Bft) 0 min 3,6 km/h (1 Bft)
13.10.2009 07:48 16,1 C 6,1 C 0,0 UV-I 0,0 C 55 % 92 % 0 % 1026,8 hPa 0,0 l/m 0,2 km/h (0 Bft) 0 min 0,0 km/h (0 Bft)
13.10.2009 07:50 16,1 C 6,1 C 0,0 UV-I 0,0 C 55 % 92 % 0 % 1026,8 hPa 0,0 l/m 0,2 km/h (0 Bft) 0 min 0,0 km/h (0 Bft)
13.10.2009 07:52 16,1 C 6,1 C 0,0 UV-I 0,0 C 55 % 92 % 0 % 1026,8 hPa 0,0 l/m 0,2 km/h (0 Bft) 0 min 0,0 km/h (0 Bft)
13.10.2009 07:54 16,1 C 6,1 C 0,0 UV-I 0,0 C 55 % 92 % 0 % 1026,8 hPa 0,0 l/m 0,2 km/h (0 Bft) 0 min 0,0 km/h (0 Bft)
13.10.2009 07:56 16,1 C 6,0 C 0,0 UV-I 0,0 C 55 % 92 % 0 % 1027,6 hPa 0,0 l/m 0,2 km/h (0 Bft) 0 min 0,0 km/h (0 Bft)
13.10.2009 07:58 16,1 C 6,0 C 0,0 UV-I 0,0 C 55 % 92 % 0 % 1027,6 hPa 0,0 l/m 0,0 km/h (0 Bft) 0 min 0,0 km/h (0 Bft)
13.10.2009 08:02 16,1 C 6,1 C 0,0 UV-I 0,0 C 55 % 92 % 0 % 1027,6 hPa 0,0 l/m 0,0 km/h (0 Bft) 0 min 0,0 km/h (0 Bft)
13.10.2009 08:04 16,1 C 6,0 C 0,0 UV-I 0,0 C 55 % 92 % 0 % 1027,6 hPa 0,0 l/m 0,2 km/h (0 Bft) 0 min 4,3 km/h (1 Bft)
13.10.2009 08:06 16,1 C 6,0 C 0,0 UV-I 0,0 C 55 % 92 % 0 % 1027,6 hPa 0,0 l/m 0,2 km/h (0 Bft) 0 min 0,0 km/h (0 Bft)
13.10.2009 08:08 16,1 C 6,0 C 0,0 UV-I 0,0 C 55 % 92 % 0 % 1027,6 hPa 0,0 l/m 0,5 km/h (0 Bft) 0 min 0,0 km/h (0 Bft)
13.10.2009 08:10 16,1 C 5,9 C 0,0 UV-I 0,0 C 55 % 92 % 0 % 1027,6 hPa 0,0 l/m 0,5 km/h (0 Bft) 0 min 0,0 km/h (0 Bft)
13.10.2009 08:12 16,1 C 6,0 C 0,0 UV-I 0,0 C 55 % 93 % 0 % 1027,6 hPa 0,0 l/m 1,0 km/h (0 Bft) 0 min 2,9 km/h (1 Bft)
13.10.2009 08:14 16,1 C 6,0 C 0,0 UV-I 0,0 C 55 % 93 % 0 % 1027,6 hPa 0,0 l/m 1,0 km/h (0 Bft) 0 min 0,0 km/h (0 Bft)
13.10.2009 08:16 16,1 C 5,9 C 0,0 UV-I 0,0 C 55 % 92 % 0 % 1027,1 hPa 0,0 l/m 0,7 km/h (0 Bft) 0 min 0,0 km/h (0 Bft)
13.10.2009 08:18 16,1 C 5,9 C 0,0 UV-I 0,0 C 55 % 93 % 0 % 1027,1 hPa 0,0 l/m 0,7 km/h (0 Bft) 0 min 0,0 km/h (0 Bft)
13.10.2009 08:20 16,1 C 5,9 C 0,0 UV-I 0,0 C 55 % 93 % 0 % 1027,1 hPa 0,0 l/m 0,7 km/h (0 Bft) 0 min 3,4 km/h (1 Bft)
13.10.2009 08:22 16,1 C 5,9 C 0,0 UV-I 0,0 C 55 % 93 % 0 % 1027,1 hPa 0,0 l/m 0,7 km/h (0 Bft) 0 min 0,0 km/h (0 Bft)
13.10.2009 08:24 16,1 C 5,9 C 0,0 UV-I 0,0 C 55 % 93 % 0 % 1027,1 hPa 0,0 l/m 0,2 km/h (0 Bft) 0 min 0,0 km/h (0 Bft)
13.10.2009 08:26 16,1 C 5,9 C 0,0 UV-I 0,0 C 55 % 93 % 0 % 1027,1 hPa 0,0 l/m 0,5 km/h (0 Bft) 0 min 3,8 km/h (1 Bft)
13.10.2009 08:28 16,1 C 5,9 C 0,0 UV-I 0,0 C 55 % 93 % 0 % 1027,1 hPa 0,0 l/m 0,2 km/h (0 Bft) 0 min 0,0 km/h (0 Bft)
13.10.2009 08:30 16,1 C 5,9 C 0,1 UV-I 0,0 C 55 % 93 % 0 % 1027,1 hPa 0,0 l/m 0,5 km/h (0 Bft) 0 min 3,1 km/h (1 Bft)
13.10.2009 08:32 16,1 C 5,9 C 0,1 UV-I 0,0 C 55 % 93 % 0 % 1027,1 hPa 0,0 l/m 0,7 km/h (0 Bft) 0 min 9,6 km/h (2 Bft)
13.10.2009 08:34 16,1 C 6,1 C 0,1 UV-I 0,0 C 55 % 93 % 0 % 1027,1 hPa 0,0 l/m 1,4 km/h (1 Bft) 0 min 4,3 km/h (1 Bft)
13.10.2009 08:36 16,1 C 6,0 C 0,1 UV-I 0,0 C 55 % 93 % 0 % 1027,4 hPa 0,0 l/m 1,7 km/h (1 Bft) 0 min 0,0 km/h (0 Bft)
13.10.2009 08:38 16,1 C 6,1 C 0,1 UV-I 0,0 C 55 % 93 % 0 % 1027,4 hPa 0,0 l/m 1,7 km/h (1 Bft) 0 min 4,8 km/h (1 Bft)
13.10.2009 08:40 16,1 C 6,1 C 0,2 UV-I 0,0 C 55 % 93 % 0 % 1027,4 hPa 0,0 l/m 1,9 km/h (1 Bft) 0 min 0,0 km/h (0 Bft)
13.10.2009 08:42 16,1 C 6,1 C 0,2 UV-I 0,0 C 55 % 93 % 0 % 1027,4 hPa 0,0 l/m 1,7 km/h (1 Bft) 0 min 0,0 km/h (0 Bft)
13.10.2009 08:44 16,1 C 6,1 C 0,2 UV-I 0,0 C 55 % 93 % 0 % 1027,4 hPa 0,0 l/m 1,0 km/h (0 Bft) 0 min 2,9 km/h (1 Bft)
13.10.2009 08:46 16,1 C 6,2 C 0,2 UV-I 0,0 C 55 % 93 % 0 % 1027,4 hPa 0,0 l/m 0,5 km/h (0 Bft) 0 min 0,0 km/h (0 Bft)
13.10.2009 08:48 16,1 C 6,2 C 0,2 UV-I 0,0 C 55 % 93 % 0 % 1027,4 hPa 0,0 l/m 1,0 km/h (0 Bft) 0 min 6,3 km/h (2 Bft)
13.10.2009 08:50 16,1 C 6,2 C 0,2 UV-I 0,0 C 55 % 93 % 0 % 1027,4 hPa 0,0 l/m 1,0 km/h (0 Bft) 0 min 0,0 km/h (0 Bft)
13.10.2009 08:52 16,1 C 6,2 C 0,2 UV-I 0,0 C 56 % 93 % 0 % 1027,4 hPa 0,0 l/m 1,0 km/h (0 Bft) 0 min 0,0 km/h (0 Bft)
13.10.2009 08:54 16,1 C 6,2 C 0,3 UV-I 0,0 C 56 % 93 % 0 % 1027,4 hPa 0,0 l/m 1,0 km/h (0 Bft) 0 min 0,0 km/h (0 Bft)
13.10.2009 08:56 16,1 C 6,2 C 0,3 UV-I 0,0 C 56 % 93 % 0 % 1027,3 hPa 0,0 l/m 1,0 km/h (0 Bft) 0 min 0,0 km/h (0 Bft)
13.10.2009 08:58 16,1 C 6,3 C 0,3 UV-I 0,0 C 56 % 93 % 0 % 1027,3 hPa 0,0 l/m 1,0 km/h (0 Bft) 0 min 0,0 km/h (0 Bft)
13.10.2009 09:00 16,1 C 6,4 C 0,2 UV-I 0,0 C 56 % 93 % 0 % 1027,3 hPa 0,0 l/m 0,5 km/h (0 Bft) 0 min 5,8 km/h (2 Bft)
13.10.2009 09:02 16,1 C 6,4 C 0,2 UV-I 0,0 C 56 % 93 % 0 % 1027,3 hPa 0,0 l/m 0,7 km/h (0 Bft) 0 min 5,3 km/h (1 Bft)
13.10.2009 09:04 16,1 C 6,4 C 0,1 UV-I 0,1 C 56 % 93 % 3 % 1027,3 hPa 0,0 l/m 1,4 km/h (1 Bft) 0 min 2,4 km/h (1 Bft)
13.10.2009 09:08 16,1 C 6,6 C 0,1 UV-I 0,2 C 56 % 92 % 6 % 1027,3 hPa 0,0 l/m 1,2 km/h (1 Bft) 0 min 0,0 km/h (0 Bft)
13.10.2009 09:10 16,2 C 6,7 C 0,1 UV-I 0,3 C 56 % 92 % 9 % 1027,3 hPa 0,0 l/m 1,2 km/h (1 Bft) 0 min 0,0 km/h (0 Bft)
13.10.2009 09:12 16,2 C 6,7 C 0,1 UV-I 0,3 C 56 % 93 % 9 % 1027,3 hPa 0,0 l/m 1,0 km/h (0 Bft) 0 min 0,0 km/h (0 Bft)
13.10.2009 09:14 16,2 C 6,7 C 0,2 UV-I 0,4 C 56 % 92 % 11 % 1027,3 hPa 0,0 l/m 0,7 km/h (0 Bft) 0 min 4,8 km/h (1 Bft)
13.10.2009 09:16 16,2 C 6,8 C 0,2 UV-I 0,3 C 56 % 92 % 9 % 1027,2 hPa 0,0 l/m 0,7 km/h (0 Bft) 0 min 2,9 km/h (1 Bft)
13.10.2009 09:18 16,2 C 6,8 C 0,2 UV-I 0,3 C 56 % 92 % 9 % 1027,2 hPa 0,0 l/m 0,7 km/h (0 Bft) 0 min 4,3 km/h (1 Bft)
13.10.2009 09:20 16,2 C 6,9 C 0,3 UV-I 0,2 C 56 % 92 % 6 % 1027,2 hPa 0,0 l/m 1,2 km/h (1 Bft) 0 min 0,0 km/h (0 Bft)
13.10.2009 09:22 16,2 C 6,9 C 0,3 UV-I 0,3 C 56 % 92 % 9 % 1027,2 hPa 0,0 l/m 1,7 km/h (1 Bft) 0 min 3,6 km/h (1 Bft)
13.10.2009 09:24 16,2 C 7,1 C 0,4 UV-I 0,1 C 56 % 93 % 3 % 1027,2 hPa 0,0 l/m 1,4 km/h (1 Bft) 0 min 0,0 km/h (0 Bft)
13.10.2009 09:26 16,2 C 7,1 C 0,4 UV-I 0,1 C 56 % 93 % 3 % 1027,2 hPa 0,0 l/m 1,2 km/h (1 Bft) 0 min 0,0 km/h (0 Bft)
13.10.2009 09:28 16,2 C 7,1 C 0,4 UV-I 0,2 C 56 % 92 % 6 % 1027,2 hPa 0,0 l/m 1,0 km/h (0 Bft) 0 min 0,0 km/h (0 Bft)
13.10.2009 09:30 16,2 C 7,1 C 0,5 UV-I 0,4 C 56 % 92 % 11 % 1027,2 hPa 0,0 l/m 1,0 km/h (0 Bft) 0 min 2,4 km/h (1 Bft)
13.10.2009 09:32 16,2 C 7,1 C 0,5 UV-I 1,0 C 56 % 92 % 29 % 1027,2 hPa 0,0 l/m 1,0 km/h (0 Bft) 0 min 3,4 km/h (1 Bft)
13.10.2009 09:34 16,2 C 7,1 C 0,4 UV-I 1,7 C 56 % 92 % 49 % 1027,2 hPa 0,0 l/m 1,2 km/h (1 Bft) 0 min 4,6 km/h (1 Bft)
13.10.2009 09:36 16,3 C 7,3 C 0,4 UV-I 3,1 C 56 % 92 % 89 % 1027,7 hPa 0,0 l/m 1,4 km/h (1 Bft) 2 min 3,4 km/h (1 Bft)
13.10.2009 09:38 16,3 C 7,2 C 0,4 UV-I 4,4 C 56 % 92 % 100 % 1027,7 hPa 0,0 l/m 1,4 km/h (1 Bft) 2 min 3,8 km/h (1 Bft)
13.10.2009 09:40 16,3 C 7,3 C 0,6 UV-I 5,1 C 56 % 92 % 100 % 1027,7 hPa 0,0 l/m 1,4 km/h (1 Bft) 2 min 0,0 km/h (0 Bft)
13.10.2009 09:42 16,3 C 7,4 C 0,6 UV-I 5,7 C 56 % 92 % 100 % 1027,7 hPa 0,0 l/m 1,7 km/h (1 Bft) 2 min 4,8 km/h (1 Bft)
13.10.2009 09:44 16,3 C 7,5 C 0,6 UV-I 5,9 C 56 % 92 % 100 % 1027,7 hPa 0,0 l/m 1,4 km/h (1 Bft) 2 min 4,6 km/h (1 Bft)
13.10.2009 09:46 16,2 C 7,6 C 0,6 UV-I 6,3 C 56 % 91 % 100 % 1027,7 hPa 0,0 l/m 2,4 km/h (1 Bft) 2 min 7,5 km/h (2 Bft)
13.10.2009 09:48 16,2 C 7,6 C 0,6 UV-I 6,5 C 56 % 91 % 100 % 1027,7 hPa 0,0 l/m 3,4 km/h (1 Bft) 2 min 5,5 km/h (1 Bft)
13.10.2009 09:50 16,4 C 7,8 C 0,8 UV-I 6,6 C 56 % 91 % 100 % 1027,7 hPa 0,0 l/m 3,6 km/h (1 Bft) 2 min 11,1 km/h (2 Bft)
13.10.2009 09:52 16,4 C 7,8 C 0,8 UV-I 7,0 C 56 % 91 % 100 % 1027,7 hPa 0,0 l/m 3,6 km/h (1 Bft) 2 min 0,0 km/h (0 Bft)
13.10.2009 09:54 16,4 C 7,8 C 0,7 UV-I 7,4 C 56 % 91 % 100 % 1027,7 hPa 0,0 l/m 3,8 km/h (1 Bft) 2 min 4,8 km/h (1 Bft)
13.10.2009 09:56 16,4 C 8,1 C 0,7 UV-I 7,3 C 56 % 91 % 100 % 1027,8 hPa 0,0 l/m 3,1 km/h (1 Bft) 2 min 0,0 km/h (0 Bft)
13.10.2009 10:00 16,4 C 8,1 C 0,9 UV-I 8,1 C 56 % 90 % 100 % 1027,8 hPa 0,0 l/m 1,9 km/h (1 Bft) 2 min 3,4 km/h (1 Bft)
13.10.2009 10:02 16,4 C 8,3 C 0,9 UV-I 8,2 C 56 % 90 % 100 % 1027,8 hPa 0,0 l/m 1,9 km/h (1 Bft) 2 min 0,0 km/h (0 Bft)
13.10.2009 10:04 16,4 C 8,3 C 0,4 UV-I 8,3 C 56 % 90 % 100 % 1027,8 hPa 0,0 l/m 2,2 km/h (1 Bft) 2 min 6,7 km/h (2 Bft)
13.10.2009 10:06 16,4 C 8,3 C 0,4 UV-I 8,4 C 56 % 90 % 100 % 1027,8 hPa 0,0 l/m 2,2 km/h (1 Bft) 2 min 4,6 km/h (1 Bft)
13.10.2009 10:08 16,4 C 8,5 C 0,4 UV-I 8,4 C 56 % 90 % 100 % 1027,8 hPa 0,0 l/m 1,9 km/h (1 Bft) 2 min 3,6 km/h (1 Bft)
13.10.2009 10:10 16,4 C 8,4 C 1,0 UV-I 8,6 C 56 % 90 % 100 % 1027,8 hPa 0,0 l/m 2,4 km/h (1 Bft) 2 min 5,3 km/h (1 Bft)
13.10.2009 10:12 16,4 C 8,5 C 1,0 UV-I 8,7 C 56 % 89 % 100 % 1027,8 hPa 0,0 l/m 2,4 km/h (1 Bft) 2 min 0,0 km/h (0 Bft)
13.10.2009 10:16 16,4 C 8,7 C 0,9 UV-I 8,7 C 56 % 89 % 100 % 1027,7 hPa 0,0 l/m 1,9 km/h (1 Bft) 2 min 9,1 km/h (2 Bft)
13.10.2009 10:18 16,4 C 8,7 C 0,9 UV-I 8,9 C 56 % 89 % 100 % 1027,7 hPa 0,0 l/m 2,2 km/h (1 Bft) 2 min 0,0 km/h (0 Bft)
13.10.2009 10:20 16,5 C 8,8 C 0,9 UV-I 8,9 C 56 % 89 % 100 % 1027,7 hPa 0,0 l/m 2,2 km/h (1 Bft) 2 min 5,1 km/h (1 Bft)
13.10.2009 10:22 16,5 C 9,0 C 0,9 UV-I 8,7 C 56 % 88 % 100 % 1027,7 hPa 0,0 l/m 2,9 km/h (1 Bft) 2 min 5,3 km/h (1 Bft)
13.10.2009 10:24 16,5 C 9,0 C 1,0 UV-I 8,6 C 56 % 88 % 100 % 1027,7 hPa 0,0 l/m 3,4 km/h (1 Bft) 2 min 3,8 km/h (1 Bft)
13.10.2009 10:28 16,5 C 9,2 C 1,0 UV-I 8,5 C 56 % 87 % 100 % 1027,7 hPa 0,0 l/m 3,1 km/h (1 Bft) 2 min 2,9 km/h (1 Bft)
13.10.2009 10:32 16,5 C 9,5 C 1,2 UV-I 8,2 C 56 % 85 % 100 % 1027,7 hPa 0,0 l/m 3,6 km/h (1 Bft) 2 min 19,7 km/h (3 Bft)
13.10.2009 10:34 16,5 C 9,6 C 1,4 UV-I 8,0 C 56 % 85 % 100 % 1027,7 hPa 0,0 l/m 3,6 km/h (1 Bft) 2 min 6,3 km/h (2 Bft)
13.10.2009 10:36 16,6 C 9,6 C 1,4 UV-I 7,9 C 56 % 85 % 100 % 1027,9 hPa 0,0 l/m 3,6 km/h (1 Bft) 2 min 3,8 km/h (1 Bft)
13.10.2009 10:40 16,6 C 9,9 C 1,8 UV-I 7,7 C 55 % 85 % 100 % 1027,9 hPa 0,0 l/m 3,1 km/h (1 Bft) 2 min 19,7 km/h (3 Bft)
13.10.2009 10:42 16,6 C 9,9 C 1,8 UV-I 8,0 C 56 % 85 % 100 % 1027,9 hPa 0,0 l/m 2,2 km/h (1 Bft) 2 min 0,0 km/h (0 Bft)
13.10.2009 10:44 16,6 C 10,0 C 1,7 UV-I 7,7 C 56 % 85 % 100 % 1027,9 hPa 0,0 l/m 1,9 km/h (1 Bft) 2 min 4,3 km/h (1 Bft)
13.10.2009 10:46 16,6 C 10,1 C 1,7 UV-I 7,0 C 56 % 84 % 100 % 1027,9 hPa 0,0 l/m 2,2 km/h (1 Bft) 2 min 6,7 km/h (2 Bft)
13.10.2009 10:48 16,6 C 10,1 C 1,7 UV-I 7,0 C 56 % 84 % 100 % 1027,9 hPa 0,0 l/m 2,2 km/h (1 Bft) 2 min 3,6 km/h (1 Bft)
13.10.2009 10:50 16,7 C 10,3 C 2,6 UV-I 7,0 C 56 % 84 % 100 % 1027,9 hPa 0,0 l/m 2,4 km/h (1 Bft) 2 min 6,7 km/h (2 Bft)
13.10.2009 10:52 16,7 C 10,2 C 2,6 UV-I 7,4 C 56 % 83 % 100 % 1027,9 hPa 0,0 l/m 3,4 km/h (1 Bft) 2 min 7,9 km/h (2 Bft)
13.10.2009 10:54 16,7 C 10,4 C 3,1 UV-I 7,3 C 55 % 83 % 100 % 1027,9 hPa 0,0 l/m 3,6 km/h (1 Bft) 2 min 3,4 km/h (1 Bft)
13.10.2009 10:56 16,7 C 10,4 C 3,1 UV-I 7,3 C 55 % 83 % 100 % 1028,2 hPa 0,0 l/m 3,4 km/h (1 Bft) 2 min 3,1 km/h (1 Bft)
13.10.2009 10:58 16,7 C 10,5 C 3,1 UV-I 6,9 C 55 % 83 % 100 % 1028,2 hPa 0,0 l/m 3,1 km/h (1 Bft) 2 min 5,8 km/h (2 Bft)
13.10.2009 11:00 16,8 C 10,6 C 2,1 UV-I 6,8 C 55 % 82 % 100 % 1028,2 hPa 0,0 l/m 3,4 km/h (1 Bft) 2 min 3,4 km/h (1 Bft)
13.10.2009 11:02 16,8 C 10,7 C 2,1 UV-I 6,9 C 55 % 82 % 100 % 1028,2 hPa 0,0 l/m 3,1 km/h (1 Bft) 2 min 5,3 km/h (1 Bft)
13.10.2009 11:04 16,8 C 10,8 C 2,0 UV-I 7,1 C 55 % 82 % 100 % 1028,2 hPa 0,0 l/m 2,9 km/h (1 Bft) 2 min 3,8 km/h (1 Bft)
13.10.2009 11:08 16,8 C 10,8 C 2,0 UV-I 5,8 C 55 % 81 % 100 % 1028,2 hPa 0,0 l/m 2,9 km/h (1 Bft) 2 min 4,3 km/h (1 Bft)
13.10.2009 11:10 16,8 C 10,8 C 1,7 UV-I 4,7 C 55 % 80 % 100 % 1028,2 hPa 0,0 l/m 3,1 km/h (1 Bft) 2 min 4,1 km/h (1 Bft)
13.10.2009 11:12 16,8 C 10,8 C 1,7 UV-I 4,2 C 55 % 80 % 100 % 1028,2 hPa 0,0 l/m 3,4 km/h (1 Bft) 2 min 5,1 km/h (1 Bft)
13.10.2009 11:13 16,9 C 10,9 C 1,8 UV-I 4,3 C 55 % 79 % 100 % 1028,2 hPa 0,0 l/m 3,6 km/h (1 Bft) 1 min 4,1 km/h (1 Bft)
13.10.2009 11:16 16,9 C 11,1 C 1,8 UV-I 4,3 C 55 % 79 % 100 % 1028,3 hPa 0,0 l/m 4,1 km/h (1 Bft) 2 min 4,6 km/h (1 Bft)
13.10.2009 11:18 16,9 C 11,1 C 1,8 UV-I 4,3 C 55 % 79 % 100 % 1028,3 hPa 0,0 l/m 4,1 km/h (1 Bft) 2 min 4,6 km/h (1 Bft)
13.10.2009 11:20 16,9 C 11,2 C 2,2 UV-I 5,0 C 55 % 78 % 100 % 1028,3 hPa 0,0 l/m 4,3 km/h (1 Bft) 2 min 4,3 km/h (1 Bft)
13.10.2009 11:22 16,9 C 11,3 C 2,2 UV-I 4,9 C 55 % 78 % 100 % 1028,3 hPa 0,0 l/m 4,1 km/h (1 Bft) 2 min 5,3 km/h (1 Bft)
13.10.2009 11:24 17,0 C 11,3 C 1,7 UV-I 4,6 C 55 % 78 % 100 % 1028,3 hPa 0,0 l/m 4,1 km/h (1 Bft) 2 min 3,6 km/h (1 Bft)
13.10.2009 11:26 17,0 C 11,2 C 1,7 UV-I 4,1 C 55 % 78 % 100 % 1028,3 hPa 0,0 l/m 4,3 km/h (1 Bft) 2 min 5,5 km/h (1 Bft)
13.10.2009 11:28 17,0 C 11,3 C 1,7 UV-I 3,6 C 55 % 77 % 100 % 1028,3 hPa 0,0 l/m 3,8 km/h (1 Bft) 2 min 3,4 km/h (1 Bft)
13.10.2009 11:30 17,0 C 11,3 C 1,8 UV-I 3,5 C 55 % 77 % 100 % 1028,3 hPa 0,0 l/m 3,6 km/h (1 Bft) 2 min 5,3 km/h (1 Bft)
13.10.2009 11:32 17,0 C 11,3 C 1,8 UV-I 3,9 C 55 % 76 % 100 % 1028,3 hPa 0,0 l/m 4,1 km/h (1 Bft) 2 min 8,7 km/h (2 Bft)
13.10.2009 11:34 17,0 C 11,5 C 1,8 UV-I 4,2 C 55 % 77 % 100 % 1028,3 hPa 0,0 l/m 3,8 km/h (1 Bft) 2 min 4,3 km/h (1 Bft)
13.10.2009 11:36 17,0 C 11,5 C 1,8 UV-I 4,9 C 55 % 77 % 100 % 1028,2 hPa 0,0 l/m 3,4 km/h (1 Bft) 2 min 10,3 km/h (2 Bft)
13.10.2009 11:38 17,0 C 11,6 C 1,8 UV-I 5,5 C 55 % 76 % 100 % 1028,2 hPa 0,0 l/m 3,6 km/h (1 Bft) 2 min 7,9 km/h (2 Bft)
13.10.2009 11:40 17,1 C 11,7 C 4,9 UV-I 5,7 C 55 % 76 % 100 % 1028,2 hPa 0,0 l/m 3,8 km/h (1 Bft) 2 min 4,8 km/h (1 Bft)
13.10.2009 11:42 17,1 C 11,8 C 4,9 UV-I 6,0 C 55 % 76 % 100 % 1028,2 hPa 0,0 l/m 3,6 km/h (1 Bft) 2 min 8,2 km/h (2 Bft)
13.10.2009 11:44 17,1 C 11,8 C 4,5 UV-I 6,4 C 55 % 76 % 100 % 1028,2 hPa 0,0 l/m 3,1 km/h (1 Bft) 2 min 3,6 km/h (1 Bft)
13.10.2009 11:46 17,2 C 12,0 C 4,5 UV-I 6,5 C 55 % 75 % 100 % 1028,2 hPa 0,0 l/m 3,4 km/h (1 Bft) 2 min 11,3 km/h (2 Bft)
13.10.2009 11:48 17,2 C 12,0 C 4,5 UV-I 6,8 C 55 % 74 % 100 % 1028,2 hPa 0,0 l/m 3,6 km/h (1 Bft) 2 min 8,7 km/h (2 Bft)
13.10.2009 11:50 17,2 C 12,1 C 5,3 UV-I 6,9 C 55 % 75 % 100 % 1028,2 hPa 0,0 l/m 3,1 km/h (1 Bft) 2 min 0,0 km/h (0 Bft)
13.10.2009 11:52 17,2 C 12,2 C 5,3 UV-I 7,0 C 55 % 73 % 100 % 1028,2 hPa 0,0 l/m 3,8 km/h (1 Bft) 2 min 8,7 km/h (2 Bft)
13.10.2009 11:54 17,2 C 12,3 C 5,2 UV-I 6,9 C 55 % 73 % 100 % 1028,2 hPa 0,0 l/m 3,8 km/h (1 Bft) 2 min 6,0 km/h (2 Bft)
13.10.2009 11:56 17,2 C 12,3 C 5,2 UV-I 6,9 C 55 % 73 % 100 % 1028,2 hPa 0,0 l/m 4,1 km/h (1 Bft) 2 min 6,0 km/h (2 Bft)
13.10.2009 11:58 17,2 C 12,5 C 5,2 UV-I 6,9 C 55 % 73 % 100 % 1028,2 hPa 0,0 l/m 4,3 km/h (1 Bft) 2 min 9,1 km/h (2 Bft)
13.10.2009 12:00 17,2 C 12,5 C 5,7 UV-I 6,9 C 55 % 72 % 100 % 1028,2 hPa 0,0 l/m 4,3 km/h (1 Bft) 2 min 3,6 km/h (1 Bft)
13.10.2009 12:03 17,2 C 12,6 C 5,7 UV-I 6,9 C 55 % 71 % 100 % 1028,2 hPa 0,0 l/m 4,8 km/h (1 Bft) 2 min 6,7 km/h (2 Bft)
13.10.2009 12:04 17,2 C 12,6 C 5,7 UV-I 6,9 C 55 % 71 % 100 % 1028,2 hPa 0,0 l/m 4,8 km/h (1 Bft) 1 min 6,7 km/h (2 Bft)
13.10.2009 12:06 17,3 C 12,7 C 5,7 UV-I 6,8 C 55 % 70 % 100 % 1028,2 hPa 0,0 l/m 5,1 km/h (1 Bft) 2 min 4,1 km/h (1 Bft)
13.10.2009 12:08 17,2 C 12,8 C 5,7 UV-I 6,5 C 55 % 70 % 100 % 1028,2 hPa 0,0 l/m 5,3 km/h (1 Bft) 2 min 3,8 km/h (1 Bft)
13.10.2009 12:10 17,2 C 12,9 C 4,0 UV-I 5,9 C 55 % 68 % 100 % 1028,2 hPa 0,0 l/m 5,1 km/h (1 Bft) 2 min 4,6 km/h (1 Bft)
13.10.2009 12:12 17,2 C 12,8 C 4,0 UV-I 5,8 C 54 % 67 % 100 % 1028,2 hPa 0,0 l/m 5,8 km/h (2 Bft) 2 min 12,3 km/h (3 Bft)
13.10.2009 12:14 17,2 C 12,8 C 6,3 UV-I 5,8 C 54 % 67 % 100 % 1028,2 hPa 0,0 l/m 6,3 km/h (2 Bft) 2 min 9,4 km/h (2 Bft)
13.10.2009 12:16 17,2 C 12,9 C 6,3 UV-I 5,4 C 54 % 68 % 100 % 1028,2 hPa 0,0 l/m 5,8 km/h (2 Bft) 2 min 0,0 km/h (0 Bft)
13.10.2009 12:18 17,4 C 12,9 C 6,3 UV-I 5,2 C 54 % 66 % 100 % 1028,2 hPa 0,0 l/m 6,0 km/h (2 Bft) 2 min 12,8 km/h (3 Bft)
13.10.2009 12:20 17,4 C 13,0 C 6,6 UV-I 5,3 C 54 % 66 % 100 % 1028,2 hPa 0,0 l/m 6,7 km/h (2 Bft) 2 min 10,1 km/h (2 Bft)
13.10.2009 12:22 17,4 C 13,0 C 6,6 UV-I 5,4 C 54 % 66 % 100 % 1028,2 hPa 0,0 l/m 7,0 km/h (2 Bft) 2 min 12,8 km/h (3 Bft)
13.10.2009 12:24 17,4 C 13,1 C 7,8 UV-I 5,4 C 54 % 66 % 100 % 1028,2 hPa 0,0 l/m 6,3 km/h (2 Bft) 2 min 14,2 km/h (3 Bft)
13.10.2009 12:26 17,4 C 13,1 C 7,8 UV-I 5,6 C 54 % 65 % 100 % 1028,2 hPa 0,0 l/m 6,5 km/h (2 Bft) 2 min 7,9 km/h (2 Bft)
13.10.2009 12:28 17,4 C 13,2 C 7,8 UV-I 5,8 C 54 % 65 % 100 % 1028,2 hPa 0,0 l/m 7,0 km/h (2 Bft) 2 min 5,1 km/h (1 Bft)
13.10.2009 12:30 17,4 C 13,3 C 7,7 UV-I 5,7 C 54 % 66 % 100 % 1028,2 hPa 0,0 l/m 6,3 km/h (2 Bft) 2 min 2,9 km/h (1 Bft)
13.10.2009 12:32 17,5 C 13,2 C 7,7 UV-I 6,0 C 54 % 66 % 100 % 1028,2 hPa 0,0 l/m 5,5 km/h (1 Bft) 2 min 5,3 km/h (1 Bft)
13.10.2009 12:34 17,5 C 13,3 C 6,5 UV-I 5,9 C 54 % 66 % 100 % 1028,2 hPa 0,0 l/m 4,6 km/h (1 Bft) 2 min 3,1 km/h (1 Bft)
13.10.2009 12:36 17,6 C 13,5 C 6,5 UV-I 5,8 C 54 % 67 % 100 % 1028,1 hPa 0,0 l/m 4,1 km/h (1 Bft) 2 min 4,3 km/h (1 Bft)
13.10.2009 12:38 17,6 C 13,5 C 6,5 UV-I 5,4 C 54 % 65 % 100 % 1028,1 hPa 0,0 l/m 4,3 km/h (1 Bft) 2 min 7,9 km/h (2 Bft)
13.10.2009 12:40 17,6 C 13,5 C 3,8 UV-I 5,3 C 53 % 64 % 100 % 1028,1 hPa 0,0 l/m 4,8 km/h (1 Bft) 2 min 11,1 km/h (2 Bft)
13.10.2009 12:42 17,6 C 13,5 C 3,8 UV-I 4,4 C 53 % 63 % 100 % 1028,1 hPa 0,0 l/m 5,5 km/h (1 Bft) 2 min 8,2 km/h (2 Bft)
13.10.2009 12:46 17,6 C 13,2 C 1,5 UV-I 3,0 C 53 % 62 % 86 % 1028,1 hPa 0,0 l/m 6,3 km/h (2 Bft) 2 min 9,1 km/h (2 Bft)
13.10.2009 12:48 17,6 C 13,3 C 1,5 UV-I 2,1 C 53 % 64 % 60 % 1028,1 hPa 0,0 l/m 5,5 km/h (1 Bft) 0 min 3,8 km/h (1 Bft)
13.10.2009 12:50 17,6 C 13,2 C 2,0 UV-I 1,7 C 53 % 64 % 49 % 1028,1 hPa 0,0 l/m 5,3 km/h (1 Bft) 0 min 6,5 km/h (2 Bft)
13.10.2009 12:52 17,6 C 13,2 C 2,0 UV-I 1,5 C 53 % 63 % 43 % 1028,1 hPa 0,0 l/m 4,8 km/h (1 Bft) 0 min 7,0 km/h (2 Bft)
13.10.2009 12:54 17,6 C 13,0 C 2,8 UV-I 1,4 C 53 % 62 % 40 % 1028,1 hPa 0,0 l/m 4,6 km/h (1 Bft) 0 min 6,0 km/h (2 Bft)
13.10.2009 12:56 17,7 C 13,1 C 2,8 UV-I 1,2 C 53 % 62 % 34 % 1028,1 hPa 0,0 l/m 4,8 km/h (1 Bft) 0 min 9,6 km/h (2 Bft)
13.10.2009 12:58 17,7 C 12,9 C 2,8 UV-I 1,2 C 53 % 62 % 34 % 1028,1 hPa 0,0 l/m 5,3 km/h (1 Bft) 0 min 8,2 km/h (2 Bft)
13.10.2009 13:00 17,7 C 12,9 C 2,2 UV-I 1,0 C 52 % 62 % 29 % 1028,1 hPa 0,0 l/m 6,0 km/h (2 Bft) 0 min 8,7 km/h (2 Bft)
13.10.2009 13:02 17,7 C 12,9 C 2,2 UV-I 1,1 C 53 % 63 % 31 % 1028,1 hPa 0,0 l/m 6,0 km/h (2 Bft) 0 min 5,3 km/h (1 Bft)
13.10.2009 13:04 17,7 C 12,9 C 6,3 UV-I 1,2 C 52 % 63 % 34 % 1028,1 hPa 0,0 l/m 6,3 km/h (2 Bft) 0 min 10,1 km/h (2 Bft)
13.10.2009 13:06 17,7 C 13,1 C 6,3 UV-I 1,8 C 53 % 64 % 51 % 1028,1 hPa 0,0 l/m 5,8 km/h (2 Bft) 0 min 6,0 km/h (2 Bft)
13.10.2009 13:08 17,8 C 13,0 C 6,3 UV-I 2,7 C 52 % 63 % 77 % 1028,1 hPa 0,0 l/m 5,8 km/h (2 Bft) 0 min 9,1 km/h (2 Bft)
13.10.2009 13:10 17,8 C 13,1 C 11,2 UV-I 3,4 C 52 % 63 % 97 % 1028,1 hPa 0,0 l/m 5,5 km/h (1 Bft) 2 min 4,8 km/h (1 Bft)
13.10.2009 13:12 17,9 C 13,2 C 11,2 UV-I 4,1 C 52 % 63 % 100 % 1028,1 hPa 0,0 l/m 5,1 km/h (1 Bft) 2 min 6,7 km/h (2 Bft)
13.10.2009 13:14 17,9 C 13,3 C 12,5 UV-I 4,5 C 52 % 62 % 100 % 1028,1 hPa 0,0 l/m 5,3 km/h (1 Bft) 2 min 4,3 km/h (1 Bft)
13.10.2009 13:16 17,9 C 13,4 C 12,5 UV-I 5,0 C 52 % 61 % 100 % 1028,7 hPa 0,0 l/m 5,1 km/h (1 Bft) 2 min 6,5 km/h (2 Bft)
13.10.2009 13:18 18,0 C 13,5 C 12,5 UV-I 5,3 C 52 % 59 % 100 % 1028,7 hPa 0,0 l/m 5,3 km/h (1 Bft) 2 min 13,0 km/h (3 Bft)
13.10.2009 13:20 18,0 C 13,5 C 12,8 UV-I 5,5 C 51 % 59 % 100 % 1028,7 hPa 0,0 l/m 5,8 km/h (2 Bft) 2 min 12,3 km/h (3 Bft)
13.10.2009 13:22 18,0 C 13,6 C 12,8 UV-I 5,4 C 51 % 57 % 100 % 1028,7 hPa 0,0 l/m 6,7 km/h (2 Bft) 2 min 12,3 km/h (3 Bft)
13.10.2009 13:24 18,0 C 13,6 C 12,7 UV-I 5,4 C 51 % 57 % 100 % 1028,7 hPa 0,0 l/m 7,2 km/h (2 Bft) 2 min 12,3 km/h (3 Bft)
13.10.2009 13:26 18,1 C 13,6 C 12,7 UV-I 5,4 C 50 % 56 % 100 % 1028,7 hPa 0,0 l/m 7,9 km/h (2 Bft) 2 min 11,5 km/h (2 Bft)
13.10.2009 13:28 18,1 C 13,6 C 12,7 UV-I 5,4 C 50 % 57 % 100 % 1028,7 hPa 0,0 l/m 7,7 km/h (2 Bft) 2 min 5,8 km/h (2 Bft)
13.10.2009 13:30 18,1 C 13,7 C 12,8 UV-I 5,4 C 49 % 58 % 100 % 1028,7 hPa 0,0 l/m 7,2 km/h (2 Bft) 2 min 3,4 km/h (1 Bft)
13.10.2009 13:32 18,1 C 13,8 C 12,8 UV-I 5,7 C 49 % 57 % 100 % 1028,7 hPa 0,0 l/m 6,7 km/h (2 Bft) 2 min 7,9 km/h (2 Bft)
13.10.2009 13:34 18,2 C 13,8 C 8,8 UV-I 5,7 C 49 % 57 % 100 % 1028,7 hPa 0,0 l/m 6,5 km/h (2 Bft) 2 min 11,3 km/h (2 Bft)
13.10.2009 13:36 18,2 C 13,8 C 8,8 UV-I 5,1 C 49 % 57 % 100 % 1028,6 hPa 0,0 l/m 6,5 km/h (2 Bft) 2 min 9,1 km/h (2 Bft)
13.10.2009 13:38 18,2 C 13,7 C 8,8 UV-I 4,4 C 49 % 57 % 100 % 1028,6 hPa 0,0 l/m 6,0 km/h (2 Bft) 2 min 5,8 km/h (2 Bft)
13.10.2009 13:40 18,2 C 13,6 C 5,6 UV-I 4,3 C 48 % 57 % 100 % 1028,6 hPa 0,0 l/m 6,5 km/h (2 Bft) 2 min 9,1 km/h (2 Bft)
13.10.2009 13:42 18,2 C 13,7 C 5,6 UV-I 4,1 C 48 % 59 % 100 % 1028,6 hPa 0,0 l/m 6,3 km/h (2 Bft) 2 min 5,1 km/h (1 Bft)
13.10.2009 13:44 18,2 C 13,6 C 3,8 UV-I 3,9 C 48 % 58 % 100 % 1028,6 hPa 0,0 l/m 6,3 km/h (2 Bft) 2 min 3,6 km/h (1 Bft)
13.10.2009 13:46 18,2 C 13,7 C 3,8 UV-I 3,2 C 48 % 58 % 91 % 1028,6 hPa 0,0 l/m 6,3 km/h (2 Bft) 2 min 7,5 km/h (2 Bft)
13.10.2009 13:48 18,3 C 13,6 C 3,8 UV-I 2,4 C 48 % 58 % 69 % 1028,6 hPa 0,0 l/m 6,0 km/h (2 Bft) 0 min 7,9 km/h (2 Bft)
13.10.2009 13:50 18,3 C 13,6 C 5,8 UV-I 2,4 C 48 % 58 % 69 % 1028,6 hPa 0,0 l/m 6,3 km/h (2 Bft) 0 min 6,7 km/h (2 Bft)
13.10.2009 13:52 18,2 C 13,6 C 5,8 UV-I 2,8 C 48 % 58 % 80 % 1028,6 hPa 0,0 l/m 6,3 km/h (2 Bft) 0 min 11,3 km/h (2 Bft)
13.10.2009 13:56 18,4 C 13,9 C 6,7 UV-I 3,8 C 48 % 59 % 100 % 1028,4 hPa 0,0 l/m 5,5 km/h (1 Bft) 2 min 5,8 km/h (2 Bft)
13.10.2009 13:58 18,4 C 13,9 C 6,7 UV-I 4,3 C 48 % 58 % 100 % 1028,4 hPa 0,0 l/m 6,0 km/h (2 Bft) 2 min 9,4 km/h (2 Bft)
13.10.2009 14:00 18,5 C 13,9 C 5,2 UV-I 4,7 C 48 % 57 % 100 % 1028,4 hPa 0,0 l/m 6,3 km/h (2 Bft) 2 min 9,6 km/h (2 Bft)
13.10.2009 14:02 18,6 C 14,0 C 5,2 UV-I 4,8 C 48 % 57 % 100 % 1028,4 hPa 0,0 l/m 6,5 km/h (2 Bft) 2 min 10,8 km/h (2 Bft)
13.10.2009 14:04 18,6 C 14,0 C 2,3 UV-I 5,0 C 48 % 57 % 100 % 1028,4 hPa 0,0 l/m 6,3 km/h (2 Bft) 2 min 6,3 km/h (2 Bft)
13.10.2009 14:06 18,7 C 14,1 C 2,3 UV-I 5,2 C 48 % 57 % 100 % 1028,4 hPa 0,0 l/m 6,3 km/h (2 Bft) 2 min 4,3 km/h (1 Bft)
13.10.2009 14:08 18,7 C 14,3 C 2,3 UV-I 5,2 C 48 % 57 % 100 % 1028,4 hPa 0,0 l/m 6,3 km/h (2 Bft) 2 min 5,5 km/h (1 Bft)
13.10.2009 14:10 18,7 C 14,3 C 2,5 UV-I 5,5 C 48 % 56 % 100 % 1028,4 hPa 0,0 l/m 6,0 km/h (2 Bft) 2 min 9,4 km/h (2 Bft)
13.10.2009 14:12 18,8 C 14,3 C 2,5 UV-I 5,8 C 48 % 56 % 100 % 1028,4 hPa 0,0 l/m 5,8 km/h (2 Bft) 2 min 8,2 km/h (2 Bft)
13.10.2009 14:14 18,8 C 14,4 C 2,5 UV-I 5,7 C 48 % 57 % 100 % 1028,4 hPa 0,0 l/m 5,5 km/h (1 Bft) 2 min 4,6 km/h (1 Bft)
13.10.2009 14:16 18,8 C 14,5 C 2,5 UV-I 5,8 C 48 % 56 % 100 % 1029,5 hPa 0,0 l/m 5,5 km/h (1 Bft) 2 min 9,1 km/h (2 Bft)
13.10.2009 14:18 18,8 C 14,4 C 2,5 UV-I 6,1 C 47 % 57 % 100 % 1029,5 hPa 0,0 l/m 5,3 km/h (1 Bft) 2 min 7,2 km/h (2 Bft)
13.10.2009 14:20 18,8 C 14,6 C 2,5 UV-I 6,0 C 47 % 56 % 100 % 1029,5 hPa 0,0 l/m 5,8 km/h (2 Bft) 2 min 13,7 km/h (3 Bft)
13.10.2009 14:22 18,9 C 14,5 C 2,5 UV-I 6,1 C 47 % 55 % 100 % 1029,5 hPa 0,0 l/m 6,0 km/h (2 Bft) 2 min 11,3 km/h (2 Bft)
13.10.2009 14:24 18,9 C 14,5 C 2,3 UV-I 6,1 C 47 % 57 % 100 % 1029,5 hPa 0,0 l/m 5,5 km/h (1 Bft) 2 min 3,1 km/h (1 Bft)
13.10.2009 14:26 18,9 C 14,5 C 2,3 UV-I 6,1 C 47 % 55 % 100 % 1029,5 hPa 0,0 l/m 6,3 km/h (2 Bft) 2 min 6,3 km/h (2 Bft)
13.10.2009 14:28 19,0 C 14,5 C 2,3 UV-I 6,0 C 47 % 54 % 100 % 1029,5 hPa 0,0 l/m 7,0 km/h (2 Bft) 2 min 4,1 km/h (1 Bft)
13.10.2009 14:30 19,0 C 14,7 C 2,1 UV-I 5,7 C 47 % 55 % 100 % 1029,5 hPa 0,0 l/m 7,2 km/h (2 Bft) 2 min 4,6 km/h (1 Bft)
13.10.2009 14:32 19,0 C 14,6 C 2,1 UV-I 5,7 C 47 % 54 % 100 % 1029,5 hPa 0,0 l/m 7,0 km/h (2 Bft) 2 min 13,5 km/h (3 Bft)
13.10.2009 14:34 19,1 C 14,7 C 2,2 UV-I 5,6 C 47 % 56 % 100 % 1029,5 hPa 0,0 l/m 6,3 km/h (2 Bft) 2 min 5,5 km/h (1 Bft)
13.10.2009 14:36 19,2 C 14,7 C 2,2 UV-I 5,8 C 47 % 55 % 100 % 1030,3 hPa 0,0 l/m 6,7 km/h (2 Bft) 2 min 12,0 km/h (2 Bft)
13.10.2009 14:38 19,2 C 14,8 C 2,2 UV-I 5,8 C 47 % 55 % 100 % 1030,3 hPa 0,0 l/m 6,3 km/h (2 Bft) 2 min 9,6 km/h (2 Bft)
13.10.2009 14:40 19,2 C 14,8 C 2,3 UV-I 5,5 C 47 % 55 % 100 % 1030,3 hPa 0,0 l/m 5,3 km/h (1 Bft) 2 min 4,3 km/h (1 Bft)
13.10.2009 14:42 19,3 C 14,9 C 2,3 UV-I 5,2 C 47 % 54 % 100 % 1030,3 hPa 0,0 l/m 5,5 km/h (1 Bft) 2 min 9,6 km/h (2 Bft)
13.10.2009 14:44 19,3 C 14,9 C 2,4 UV-I 5,2 C 47 % 53 % 100 % 1030,3 hPa 0,0 l/m 5,3 km/h (1 Bft) 2 min 7,9 km/h (2 Bft)
13.10.2009 14:46 19,2 C 14,9 C 2,4 UV-I 4,9 C 47 % 53 % 100 % 1030,3 hPa 0,0 l/m 5,5 km/h (1 Bft) 2 min 8,2 km/h (2 Bft)
13.10.2009 14:48 19,2 C 14,8 C 2,4 UV-I 4,7 C 47 % 52 % 100 % 1030,3 hPa 0,0 l/m 5,8 km/h (2 Bft) 2 min 9,1 km/h (2 Bft)
13.10.2009 14:50 19,4 C 14,7 C 2,0 UV-I 4,8 C 47 % 53 % 100 % 1030,3 hPa 0,0 l/m 6,0 km/h (2 Bft) 2 min 6,0 km/h (2 Bft)
13.10.2009 14:52 19,4 C 14,7 C 2,0 UV-I 4,4 C 46 % 55 % 100 % 1030,3 hPa 0,0 l/m 6,0 km/h (2 Bft) 2 min 0,0 km/h (0 Bft)
13.10.2009 14:54 19,4 C 14,7 C 2,1 UV-I 3,9 C 46 % 53 % 100 % 1030,3 hPa 0,0 l/m 5,8 km/h (2 Bft) 2 min 3,4 km/h (1 Bft)
13.10.2009 14:56 19,4 C 14,7 C 2,1 UV-I 3,3 C 46 % 53 % 94 % 1031,2 hPa 0,0 l/m 5,5 km/h (1 Bft) 2 min 7,9 km/h (2 Bft)
13.10.2009 14:58 19,4 C 14,6 C 2,1 UV-I 2,9 C 46 % 53 % 83 % 1031,2 hPa 0,0 l/m 5,5 km/h (1 Bft) 2 min 5,8 km/h (2 Bft)
13.10.2009 15:00 19,4 C 14,5 C 2,0 UV-I 2,2 C 46 % 54 % 63 % 1031,2 hPa 0,0 l/m 5,5 km/h (1 Bft) 0 min 6,0 km/h (2 Bft)
13.10.2009 15:02 19,4 C 14,5 C 2,0 UV-I 1,7 C 46 % 54 % 49 % 1031,2 hPa 0,0 l/m 5,8 km/h (2 Bft) 0 min 6,3 km/h (2 Bft)
13.10.2009 15:04 19,4 C 14,4 C 1,7 UV-I 1,4 C 46 % 54 % 40 % 1031,2 hPa 0,0 l/m 6,0 km/h (2 Bft) 0 min 6,7 km/h (2 Bft)
13.10.2009 15:06 19,4 C 14,3 C 1,7 UV-I 1,1 C 46 % 54 % 31 % 1031,2 hPa 0,0 l/m 6,5 km/h (2 Bft) 0 min 8,2 km/h (2 Bft)
13.10.2009 15:08 19,4 C 14,3 C 1,7 UV-I 0,8 C 46 % 54 % 23 % 1031,2 hPa 0,0 l/m 6,5 km/h (2 Bft) 0 min 6,5 km/h (2 Bft)
13.10.2009 15:10 19,4 C 14,1 C 1,8 UV-I 0,8 C 46 % 54 % 23 % 1031,2 hPa 0,0 l/m 6,7 km/h (2 Bft) 0 min 13,0 km/h (3 Bft)
13.10.2009 15:12 19,4 C 14,0 C 1,8 UV-I 1,3 C 45 % 54 % 37 % 1031,2 hPa 0,0 l/m 6,5 km/h (2 Bft) 0 min 11,8 km/h (2 Bft)
13.10.2009 15:14 19,4 C 14,1 C 1,9 UV-I 1,5 C 45 % 53 % 43 % 1031,2 hPa 0,0 l/m 6,7 km/h (2 Bft) 0 min 12,0 km/h (2 Bft)
13.10.2009 15:16 19,4 C 14,0 C 1,9 UV-I 1,6 C 45 % 52 % 46 % 1029,9 hPa 0,0 l/m 6,7 km/h (2 Bft) 0 min 8,9 km/h (2 Bft)
13.10.2009 15:18 19,4 C 14,0 C 1,9 UV-I 1,4 C 45 % 53 % 40 % 1029,9 hPa 0,0 l/m 7,0 km/h (2 Bft) 0 min 14,0 km/h (3 Bft)
13.10.2009 15:20 19,4 C 14,0 C 1,7 UV-I 1,2 C 45 % 54 % 34 % 1029,9 hPa 0,0 l/m 6,7 km/h (2 Bft) 0 min 6,5 km/h (2 Bft)
13.10.2009 15:22 19,4 C 14,0 C 1,7 UV-I 1,6 C 45 % 54 % 46 % 1029,9 hPa 0,0 l/m 6,5 km/h (2 Bft) 0 min 6,7 km/h (2 Bft)
13.10.2009 15:24 19,4 C 14,0 C 1,9 UV-I 2,1 C 45 % 54 % 60 % 1029,9 hPa 0,0 l/m 6,5 km/h (2 Bft) 0 min 4,6 km/h (1 Bft)
13.10.2009 15:26 19,4 C 14,0 C 1,9 UV-I 2,5 C 45 % 55 % 71 % 1029,9 hPa 0,0 l/m 6,3 km/h (2 Bft) 0 min 7,5 km/h (2 Bft)
13.10.2009 15:28 19,5 C 14,1 C 1,9 UV-I 3,3 C 45 % 55 % 94 % 1029,9 hPa 0,0 l/m 5,3 km/h (1 Bft) 2 min 3,1 km/h (1 Bft)
13.10.2009 15:30 19,6 C 14,2 C 2,0 UV-I 3,6 C 45 % 54 % 100 % 1029,9 hPa 0,0 l/m 5,5 km/h (1 Bft) 2 min 9,9 km/h (2 Bft)
13.10.2009 15:32 19,6 C 14,3 C 2,0 UV-I 3,2 C 45 % 54 % 91 % 1029,9 hPa 0,0 l/m 5,5 km/h (1 Bft) 2 min 5,1 km/h (1 Bft)
13.10.2009 15:34 19,6 C 14,1 C 1,9 UV-I 3,5 C 44 % 54 % 100 % 1029,9 hPa 0,0 l/m 5,5 km/h (1 Bft) 2 min 3,4 km/h (1 Bft)
13.10.2009 15:36 19,6 C 14,1 C 1,9 UV-I 3,7 C 44 % 53 % 100 % 1029,8 hPa 0,0 l/m 5,3 km/h (1 Bft) 2 min 25,0 km/h (4 Bft)
13.10.2009 15:38 19,7 C 14,1 C 1,9 UV-I 3,9 C 44 % 54 % 100 % 1029,8 hPa 0,0 l/m 5,8 km/h (2 Bft) 2 min 5,1 km/h (1 Bft)
13.10.2009 15:40 19,7 C 14,0 C 1,7 UV-I 4,2 C 44 % 54 % 100 % 1029,8 hPa 0,0 l/m 6,0 km/h (2 Bft) 2 min 25,0 km/h (4 Bft)
13.10.2009 15:42 19,8 C 14,0 C 1,7 UV-I 4,2 C 44 % 53 % 100 % 1029,8 hPa 0,0 l/m 6,3 km/h (2 Bft) 2 min 10,3 km/h (2 Bft)
13.10.2009 15:44 19,8 C 14,0 C 1,7 UV-I 4,4 C 44 % 52 % 100 % 1029,8 hPa 0,0 l/m 7,0 km/h (2 Bft) 2 min 17,1 km/h (3 Bft)
13.10.2009 15:46 19,8 C 13,9 C 1,7 UV-I 4,5 C 44 % 53 % 100 % 1029,8 hPa 0,0 l/m 7,5 km/h (2 Bft) 2 min 9,6 km/h (2 Bft)
13.10.2009 15:48 19,9 C 13,9 C 1,7 UV-I 4,6 C 44 % 52 % 100 % 1029,8 hPa 0,0 l/m 7,2 km/h (2 Bft) 2 min 7,7 km/h (2 Bft)
13.10.2009 15:50 19,9 C 13,9 C 1,7 UV-I 4,7 C 43 % 53 % 100 % 1029,8 hPa 0,0 l/m 7,0 km/h (2 Bft) 2 min 10,8 km/h (2 Bft)
13.10.2009 15:52 20,0 C 13,9 C 1,7 UV-I 5,0 C 43 % 53 % 100 % 1029,8 hPa 0,0 l/m 6,7 km/h (2 Bft) 2 min 14,0 km/h (3 Bft)
13.10.2009 15:54 20,0 C 14,0 C 1,6 UV-I 5,0 C 43 % 54 % 100 % 1029,8 hPa 0,0 l/m 5,5 km/h (1 Bft) 2 min 2,9 km/h (1 Bft)
13.10.2009 15:56 20,0 C 14,0 C 1,6 UV-I 5,2 C 43 % 54 % 100 % 1030,2 hPa 0,0 l/m 5,8 km/h (2 Bft) 2 min 14,4 km/h (3 Bft)
13.10.2009 15:58 20,0 C 14,0 C 1,6 UV-I 5,2 C 43 % 54 % 100 % 1030,2 hPa 0,0 l/m 5,5 km/h (1 Bft) 2 min 10,1 km/h (2 Bft)
13.10.2009 16:00 20,0 C 14,1 C 1,4 UV-I 5,3 C 43 % 55 % 100 % 1030,2 hPa 0,0 l/m 5,1 km/h (1 Bft) 2 min 3,6 km/h (1 Bft)
13.10.2009 16:02 20,0 C 14,0 C 1,4 UV-I 5,3 C 43 % 55 % 100 % 1030,2 hPa 0,0 l/m 5,3 km/h (1 Bft) 2 min 7,5 km/h (2 Bft)
13.10.2009 16:04 20,0 C 14,1 C 1,2 UV-I 4,9 C 43 % 54 % 100 % 1030,2 hPa 0,0 l/m 5,3 km/h (1 Bft) 2 min 6,7 km/h (2 Bft)
13.10.2009 16:06 20,0 C 13,9 C 1,2 UV-I 4,1 C 43 % 55 % 100 % 1030,2 hPa 0,0 l/m 5,5 km/h (1 Bft) 2 min 7,9 km/h (2 Bft)
13.10.2009 16:08 20,0 C 13,9 C 1,2 UV-I 3,5 C 43 % 54 % 100 % 1030,2 hPa 0,0 l/m 5,5 km/h (1 Bft) 2 min 7,2 km/h (2 Bft)
13.10.2009 16:10 19,9 C 13,9 C 1,4 UV-I 3,4 C 43 % 54 % 97 % 1030,2 hPa 0,0 l/m 6,3 km/h (2 Bft) 2 min 7,9 km/h (2 Bft)
13.10.2009 16:12 19,9 C 13,8 C 1,4 UV-I 3,6 C 43 % 55 % 100 % 1030,2 hPa 0,0 l/m 6,7 km/h (2 Bft) 2 min 8,4 km/h (2 Bft)
13.10.2009 16:14 19,9 C 13,8 C 1,4 UV-I 3,7 C 43 % 55 % 100 % 1030,2 hPa 0,0 l/m 6,7 km/h (2 Bft) 2 min 14,2 km/h (3 Bft)
13.10.2009 16:16 19,9 C 13,7 C 1,4 UV-I 4,0 C 43 % 54 % 100 % 1028,9 hPa 0,0 l/m 6,7 km/h (2 Bft) 2 min 10,8 km/h (2 Bft)
13.10.2009 16:18 19,8 C 13,7 C 1,4 UV-I 3,8 C 43 % 55 % 100 % 1028,9 hPa 0,0 l/m 6,7 km/h (2 Bft) 2 min 7,7 km/h (2 Bft)
13.10.2009 16:22 19,8 C 13,6 C 1,5 UV-I 3,6 C 43 % 56 % 100 % 1028,9 hPa 0,0 l/m 5,8 km/h (2 Bft) 2 min 6,7 km/h (2 Bft)
13.10.2009 16:24 19,8 C 13,7 C 1,3 UV-I 3,6 C 43 % 56 % 100 % 1028,9 hPa 0,0 l/m 5,3 km/h (1 Bft) 2 min 5,1 km/h (1 Bft)
13.10.2009 16:26 19,8 C 13,7 C 1,3 UV-I 3,7 C 44 % 55 % 100 % 1028,9 hPa 0,0 l/m 4,8 km/h (1 Bft) 2 min 4,3 km/h (1 Bft)
13.10.2009 16:28 19,7 C 13,7 C 1,3 UV-I 3,8 C 44 % 55 % 100 % 1028,9 hPa 0,0 l/m 4,1 km/h (1 Bft) 2 min 7,5 km/h (2 Bft)
13.10.2009 16:30 19,7 C 13,7 C 1,3 UV-I 3,5 C 44 % 55 % 100 % 1028,9 hPa 0,0 l/m 4,1 km/h (1 Bft) 2 min 4,1 km/h (1 Bft)
13.10.2009 16:34 19,6 C 13,6 C 1,1 UV-I 2,9 C 44 % 54 % 83 % 1028,9 hPa 0,0 l/m 5,1 km/h (1 Bft) 2 min 9,1 km/h (2 Bft)
13.10.2009 16:36 19,6 C 13,6 C 1,1 UV-I 2,6 C 44 % 56 % 74 % 1028,1 hPa 0,0 l/m 4,6 km/h (1 Bft) 2 min 9,1 km/h (2 Bft)
13.10.2009 16:38 19,6 C 13,6 C 1,1 UV-I 2,3 C 44 % 55 % 66 % 1028,1 hPa 0,0 l/m 5,3 km/h (1 Bft) 0 min 10,8 km/h (2 Bft)
13.10.2009 16:40 19,6 C 13,7 C 0,8 UV-I 1,7 C 44 % 55 % 49 % 1028,1 hPa 0,0 l/m 5,3 km/h (1 Bft) 0 min 3,1 km/h (1 Bft)
13.10.2009 16:42 19,6 C 13,6 C 0,8 UV-I 1,6 C 44 % 55 % 46 % 1028,1 hPa 0,0 l/m 5,5 km/h (1 Bft) 0 min 13,0 km/h (3 Bft)
13.10.2009 16:44 19,5 C 13,5 C 0,6 UV-I 1,3 C 44 % 56 % 37 % 1028,1 hPa 0,0 l/m 5,1 km/h (1 Bft) 0 min 5,5 km/h (1 Bft)
13.10.2009 16:46 19,5 C 13,5 C 0,6 UV-I 1,0 C 44 % 57 % 29 % 1028,1 hPa 0,0 l/m 5,3 km/h (1 Bft) 0 min 8,7 km/h (2 Bft)
13.10.2009 16:48 19,5 C 13,5 C 0,6 UV-I 0,7 C 44 % 57 % 20 % 1028,1 hPa 0,0 l/m 5,3 km/h (1 Bft) 0 min 7,2 km/h (2 Bft)
13.10.2009 16:50 19,4 C 13,5 C 0,7 UV-I 0,5 C 44 % 57 % 14 % 1028,1 hPa 0,0 l/m 5,1 km/h (1 Bft) 0 min 8,7 km/h (2 Bft)
13.10.2009 16:52 19,4 C 13,3 C 0,7 UV-I 0,4 C 44 % 57 % 11 % 1028,1 hPa 0,0 l/m 4,8 km/h (1 Bft) 0 min 2,6 km/h (1 Bft)
13.10.2009 16:54 19,4 C 13,2 C 0,9 UV-I 0,4 C 44 % 55 % 11 % 1028,1 hPa 0,0 l/m 5,5 km/h (1 Bft) 0 min 15,6 km/h (3 Bft)
13.10.2009 16:56 19,4 C 13,2 C 0,9 UV-I 0,2 C 44 % 54 % 6 % 1027,6 hPa 0,0 l/m 6,0 km/h (2 Bft) 0 min 7,9 km/h (2 Bft)
13.10.2009 16:58 19,4 C 13,2 C 0,9 UV-I 0,2 C 44 % 55 % 6 % 1027,6 hPa 0,0 l/m 5,5 km/h (1 Bft) 0 min 0,0 km/h (0 Bft)
13.10.2009 17:00 19,2 C 13,2 C 1,0 UV-I 0,3 C 44 % 55 % 9 % 1027,6 hPa 0,0 l/m 5,5 km/h (1 Bft) 0 min 7,0 km/h (2 Bft)
13.10.2009 17:02 19,3 C 13,3 C 1,0 UV-I 0,3 C 44 % 55 % 9 % 1027,6 hPa 0,0 l/m 5,3 km/h (1 Bft) 0 min 5,8 km/h (2 Bft)
13.10.2009 17:04 19,3 C 13,3 C 0,9 UV-I 0,5 C 44 % 56 % 14 % 1027,6 hPa 0,0 l/m 5,3 km/h (1 Bft) 0 min 2,6 km/h (1 Bft)
13.10.2009 17:06 19,2 C 13,3 C 0,9 UV-I 0,5 C 44 % 56 % 14 % 1027,6 hPa 0,0 l/m 3,8 km/h (1 Bft) 0 min 3,6 km/h (1 Bft)
13.10.2009 17:08 19,2 C 13,2 C 0,9 UV-I 0,9 C 44 % 56 % 26 % 1027,6 hPa 0,0 l/m 3,8 km/h (1 Bft) 0 min 8,7 km/h (2 Bft)
13.10.2009 17:10 19,2 C 13,3 C 1,0 UV-I 0,8 C 45 % 56 % 23 % 1027,6 hPa 0,0 l/m 4,1 km/h (1 Bft) 0 min 3,1 km/h (1 Bft)
13.10.2009 17:12 19,2 C 13,3 C 1,0 UV-I 1,0 C 44 % 56 % 29 % 1027,6 hPa 0,0 l/m 3,6 km/h (1 Bft) 0 min 3,8 km/h (1 Bft)
13.10.2009 17:14 19,2 C 13,3 C 0,8 UV-I 1,0 C 45 % 55 % 29 % 1027,6 hPa 0,0 l/m 3,8 km/h (1 Bft) 0 min 3,6 km/h (1 Bft)
13.10.2009 17:16 19,2 C 13,2 C 0,8 UV-I 1,0 C 45 % 56 % 29 % 1027,6 hPa 0,0 l/m 4,3 km/h (1 Bft) 0 min 4,3 km/h (1 Bft)
13.10.2009 17:18 19,2 C 13,2 C 0,8 UV-I 0,8 C 45 % 56 % 23 % 1027,6 hPa 0,0 l/m 4,1 km/h (1 Bft) 0 min 6,3 km/h (2 Bft)
13.10.2009 17:22 19,2 C 13,2 C 0,7 UV-I 0,4 C 45 % 56 % 11 % 1027,6 hPa 0,0 l/m 5,1 km/h (1 Bft) 0 min 12,8 km/h (3 Bft)
13.10.2009 17:24 19,1 C 13,1 C 0,7 UV-I 0,2 C 45 % 57 % 6 % 1027,6 hPa 0,0 l/m 4,8 km/h (1 Bft) 0 min 3,1 km/h (1 Bft)
13.10.2009 17:26 19,1 C 13,1 C 0,7 UV-I 0,1 C 45 % 57 % 3 % 1027,6 hPa 0,0 l/m 4,8 km/h (1 Bft) 0 min 11,3 km/h (2 Bft)
13.10.2009 17:30 19,0 C 13,0 C 0,6 UV-I 0,0 C 45 % 58 % 0 % 1027,6 hPa 0,0 l/m 4,8 km/h (1 Bft) 0 min 7,5 km/h (2 Bft)
13.10.2009 17:33 19,0 C 12,9 C 0,4 UV-I 0,0 C 45 % 58 % 0 % 1027,6 hPa 0,0 l/m 4,6 km/h (1 Bft) 0 min 8,7 km/h (2 Bft)
13.10.2009 17:38 19,0 C 12,9 C 0,1 UV-I 0,2 C 45 % 59 % 6 % 1027,8 hPa 0,0 l/m 4,3 km/h (1 Bft) 0 min 0,0 km/h (0 Bft)
13.10.2009 17:40 19,0 C 12,9 C 0,1 UV-I 0,2 C 45 % 59 % 6 % 1027,8 hPa 0,0 l/m 4,3 km/h (1 Bft) 0 min 0,0 km/h (0 Bft)
13.10.2009 17:42 19,0 C 12,8 C 0,1 UV-I 0,4 C 45 % 60 % 11 % 1027,8 hPa 0,0 l/m 3,8 km/h (1 Bft) 0 min 5,5 km/h (1 Bft)
13.10.2009 17:44 18,9 C 12,8 C 0,0 UV-I 0,4 C 45 % 60 % 11 % 1027,8 hPa 0,0 l/m 3,8 km/h (1 Bft) 0 min 7,2 km/h (2 Bft)
13.10.2009 17:46 18,9 C 12,8 C 0,0 UV-I 0,4 C 45 % 59 % 11 % 1027,8 hPa 0,0 l/m 3,1 km/h (1 Bft) 0 min 4,3 km/h (1 Bft)
13.10.2009 17:48 18,9 C 12,8 C 0,0 UV-I 0,4 C 45 % 59 % 11 % 1027,8 hPa 0,0 l/m 3,4 km/h (1 Bft) 0 min 5,3 km/h (1 Bft)
13.10.2009 17:50 18,9 C 12,8 C 0,0 UV-I 0,4 C 45 % 59 % 11 % 1027,8 hPa 0,0 l/m 3,1 km/h (1 Bft) 0 min 4,1 km/h (1 Bft)
13.10.2009 17:52 18,9 C 12,8 C 0,0 UV-I 0,4 C 45 % 59 % 11 % 1027,8 hPa 0,0 l/m 3,8 km/h (1 Bft) 0 min 6,3 km/h (2 Bft)
13.10.2009 17:54 18,8 C 12,8 C 0,0 UV-I 0,4 C 45 % 58 % 11 % 1027,8 hPa 0,0 l/m 4,1 km/h (1 Bft) 0 min 6,5 km/h (2 Bft)
13.10.2009 17:56 18,8 C 12,9 C 0,0 UV-I 0,2 C 45 % 58 % 6 % 1027,6 hPa 0,0 l/m 4,6 km/h (1 Bft) 0 min 6,5 km/h (2 Bft)
13.10.2009 17:58 18,8 C 12,9 C 0,0 UV-I 0,1 C 45 % 57 % 3 % 1027,6 hPa 0,0 l/m 5,3 km/h (1 Bft) 0 min 10,6 km/h (2 Bft)
13.10.2009 18:00 18,8 C 12,9 C 0,1 UV-I 0,1 C 45 % 56 % 3 % 1027,6 hPa 0,0 l/m 6,0 km/h (2 Bft) 0 min 16,1 km/h (3 Bft)
13.10.2009 18:02 18,8 C 12,8 C 0,1 UV-I 0,1 C 45 % 56 % 3 % 1027,6 hPa 0,0 l/m 6,0 km/h (2 Bft) 0 min 14,9 km/h (3 Bft)
13.10.2009 18:04 18,8 C 12,7 C 0,1 UV-I 0,1 C 45 % 56 % 3 % 1027,6 hPa 0,0 l/m 6,5 km/h (2 Bft) 0 min 11,5 km/h (2 Bft)
13.10.2009 18:06 18,8 C 12,7 C 0,1 UV-I 0,0 C 45 % 56 % 0 % 1027,6 hPa 0,0 l/m 7,0 km/h (2 Bft) 0 min 12,5 km/h (3 Bft)
13.10.2009 18:08 18,8 C 12,6 C 0,1 UV-I 0,0 C 45 % 57 % 0 % 1027,6 hPa 0,0 l/m 6,5 km/h (2 Bft) 0 min 4,8 km/h (1 Bft)
13.10.2009 18:10 18,8 C 12,7 C 0,0 UV-I 0,0 C 45 % 57 % 0 % 1027,6 hPa 0,0 l/m 6,0 km/h (2 Bft) 0 min 9,6 km/h (2 Bft)
13.10.2009 18:12 18,7 C 12,7 C 0,0 UV-I 0,0 C 45 % 57 % 0 % 1027,6 hPa 0,0 l/m 6,0 km/h (2 Bft) 0 min 4,1 km/h (1 Bft)
13.10.2009 18:14 18,7 C 12,5 C 0,0 UV-I 0,0 C 45 % 57 % 0 % 1027,6 hPa 0,0 l/m 5,5 km/h (1 Bft) 0 min 7,0 km/h (2 Bft)
13.10.2009 18:16 18,7 C 12,5 C 0,0 UV-I 0,0 C 45 % 57 % 0 % 1027,7 hPa 0,0 l/m 4,8 km/h (1 Bft) 0 min 4,6 km/h (1 Bft)
13.10.2009 18:18 18,7 C 12,5 C 0,0 UV-I 0,0 C 45 % 58 % 0 % 1027,7 hPa 0,0 l/m 3,6 km/h (1 Bft) 0 min 0,0 km/h (0 Bft)
13.10.2009 18:20 18,7 C 12,4 C 0,0 UV-I 0,0 C 45 % 58 % 0 % 1027,7 hPa 0,0 l/m 3,1 km/h (1 Bft) 0 min 2,9 km/h (1 Bft)
13.10.2009 18:22 18,6 C 12,5 C 0,0 UV-I 0,0 C 45 % 59 % 0 % 1027,7 hPa 0,0 l/m 2,4 km/h (1 Bft) 0 min 3,1 km/h (1 Bft)
13.10.2009 18:24 18,6 C 12,4 C 0,0 UV-I 0,0 C 45 % 59 % 0 % 1027,7 hPa 0,0 l/m 2,4 km/h (1 Bft) 0 min 2,9 km/h (1 Bft)
13.10.2009 18:26 18,6 C 12,4 C 0,0 UV-I 0,0 C 45 % 59 % 0 % 1027,7 hPa 0,0 l/m 1,9 km/h (1 Bft) 0 min 2,6 km/h (1 Bft)
13.10.2009 18:28 18,6 C 12,4 C 0,0 UV-I 0,0 C 45 % 59 % 0 % 1027,7 hPa 0,0 l/m 1,7 km/h (1 Bft) 0 min 0,0 km/h (0 Bft)
13.10.2009 18:30 18,6 C 12,5 C 0,0 UV-I 0,0 C 45 % 60 % 0 % 1027,7 hPa 0,0 l/m 1,9 km/h (1 Bft) 0 min 2,6 km/h (1 Bft)
13.10.2009 18:32 18,6 C 12,3 C 0,0 UV-I 0,0 C 46 % 60 % 0 % 1027,7 hPa 0,0 l/m 1,7 km/h (1 Bft) 0 min 0,0 km/h (0 Bft)
13.10.2009 18:34 18,6 C 12,3 C 0,0 UV-I 0,0 C 46 % 60 % 0 % 1027,7 hPa 0,0 l/m 1,2 km/h (1 Bft) 0 min 2,6 km/h (1 Bft)
13.10.2009 18:36 18,6 C 12,3 C 0,0 UV-I 0,0 C 46 % 60 % 0 % 1027,9 hPa 0,0 l/m 1,2 km/h (1 Bft) 0 min 4,8 km/h (1 Bft)
13.10.2009 18:38 18,6 C 12,3 C 0,0 UV-I 0,0 C 46 % 61 % 0 % 1027,9 hPa 0,0 l/m 1,7 km/h (1 Bft) 0 min 5,5 km/h (1 Bft)
13.10.2009 18:40 18,5 C 12,3 C 0,0 UV-I 0,0 C 46 % 62 % 0 % 1027,9 hPa 0,0 l/m 3,6 km/h (1 Bft) 0 min 6,0 km/h (2 Bft)
13.10.2009 18:42 18,5 C 12,3 C 0,0 UV-I 0,0 C 46 % 63 % 0 % 1027,9 hPa 0,0 l/m 4,1 km/h (1 Bft) 0 min 3,8 km/h (1 Bft)
13.10.2009 18:44 18,5 C 12,1 C 0,0 UV-I 0,0 C 46 % 64 % 0 % 1027,9 hPa 0,0 l/m 4,3 km/h (1 Bft) 0 min 4,1 km/h (1 Bft)
13.10.2009 18:46 18,5 C 12,0 C 0,0 UV-I 0,0 C 46 % 64 % 0 % 1027,9 hPa 0,0 l/m 5,3 km/h (1 Bft) 0 min 6,5 km/h (2 Bft)
13.10.2009 18:48 18,4 C 12,0 C 0,0 UV-I 0,0 C 46 % 64 % 0 % 1027,9 hPa 0,0 l/m 6,0 km/h (2 Bft) 0 min 7,5 km/h (2 Bft)
13.10.2009 18:50 18,5 C 11,9 C 0,0 UV-I 0,0 C 46 % 65 % 0 % 1027,9 hPa 0,0 l/m 5,8 km/h (2 Bft) 0 min 5,5 km/h (1 Bft)
13.10.2009 18:52 18,4 C 11,8 C 0,0 UV-I 0,0 C 46 % 65 % 0 % 1027,9 hPa 0,0 l/m 4,8 km/h (1 Bft) 0 min 5,8 km/h (2 Bft)
13.10.2009 18:54 18,4 C 11,9 C 0,0 UV-I 0,0 C 46 % 65 % 0 % 1027,9 hPa 0,0 l/m 5,3 km/h (1 Bft) 0 min 7,5 km/h (2 Bft)
13.10.2009 18:56 18,4 C 11,7 C 0,0 UV-I 0,0 C 46 % 65 % 0 % 1028,2 hPa 0,0 l/m 5,3 km/h (1 Bft) 0 min 3,6 km/h (1 Bft)
13.10.2009 18:58 18,4 C 11,7 C 0,0 UV-I 0,0 C 46 % 66 % 0 % 1028,2 hPa 0,0 l/m 4,6 km/h (1 Bft) 0 min 4,1 km/h (1 Bft)
13.10.2009 19:00 18,4 C 11,6 C 0,0 UV-I 0,0 C 46 % 66 % 0 % 1028,2 hPa 0,0 l/m 3,8 km/h (1 Bft) 0 min 2,9 km/h (1 Bft)
13.10.2009 19:02 18,4 C 11,6 C 0,0 UV-I 0,0 C 46 % 67 % 0 % 1028,2 hPa 0,0 l/m 3,6 km/h (1 Bft) 0 min 3,8 km/h (1 Bft)
13.10.2009 19:04 18,4 C 11,5 C 0,0 UV-I 0,0 C 46 % 67 % 0 % 1028,2 hPa 0,0 l/m 3,1 km/h (1 Bft) 0 min 3,4 km/h (1 Bft)
13.10.2009 19:06 18,4 C 11,5 C 0,0 UV-I 0,0 C 46 % 67 % 0 % 1028,2 hPa 0,0 l/m 3,6 km/h (1 Bft) 0 min 13,2 km/h (3 Bft)
13.10.2009 19:08 18,4 C 11,5 C 0,0 UV-I 0,0 C 46 % 67 % 0 % 1028,2 hPa 0,0 l/m 3,8 km/h (1 Bft) 0 min 4,8 km/h (1 Bft)
13.10.2009 19:10 18,4 C 11,4 C 0,0 UV-I 0,0 C 47 % 67 % 0 % 1028,2 hPa 0,0 l/m 4,3 km/h (1 Bft) 0 min 7,5 km/h (2 Bft)
13.10.2009 19:12 18,4 C 11,3 C 0,0 UV-I 0,0 C 46 % 67 % 0 % 1028,2 hPa 0,0 l/m 4,3 km/h (1 Bft) 0 min 4,1 km/h (1 Bft)
13.10.2009 19:14 18,4 C 11,2 C 0,0 UV-I 0,0 C 47 % 67 % 0 % 1028,2 hPa 0,0 l/m 5,1 km/h (1 Bft) 0 min 4,8 km/h (1 Bft)
13.10.2009 19:16 18,2 C 11,3 C 0,0 UV-I 0,0 C 47 % 67 % 0 % 1028,3 hPa 0,0 l/m 4,8 km/h (1 Bft) 0 min 2,4 km/h (1 Bft)
13.10.2009 19:18 18,2 C 11,2 C 0,0 UV-I 0,0 C 47 % 68 % 0 % 1028,3 hPa 0,0 l/m 3,4 km/h (1 Bft) 0 min 2,9 km/h (1 Bft)
13.10.2009 19:20 18,3 C 11,2 C 0,0 UV-I 0,0 C 47 % 68 % 0 % 1028,3 hPa 0,0 l/m 3,1 km/h (1 Bft) 0 min 5,1 km/h (1 Bft)
13.10.2009 19:22 18,3 C 11,1 C 0,0 UV-I 0,0 C 47 % 68 % 0 % 1028,3 hPa 0,0 l/m 2,4 km/h (1 Bft) 0 min 3,1 km/h (1 Bft)
13.10.2009 19:24 18,3 C 11,0 C 0,0 UV-I 0,0 C 47 % 69 % 0 % 1028,3 hPa 0,0 l/m 1,9 km/h (1 Bft) 0 min 0,0 km/h (0 Bft)
13.10.2009 19:26 18,3 C 11,1 C 0,0 UV-I 0,0 C 47 % 69 % 0 % 1028,3 hPa 0,0 l/m 1,4 km/h (1 Bft) 0 min 0,0 km/h (0 Bft)
13.10.2009 19:28 18,3 C 11,1 C 0,0 UV-I 0,0 C 47 % 69 % 0 % 1028,3 hPa 0,0 l/m 1,4 km/h (1 Bft) 0 min 2,6 km/h (1 Bft)
13.10.2009 19:30 18,3 C 10,9 C 0,0 UV-I 0,0 C 47 % 69 % 0 % 1028,3 hPa 0,0 l/m 1,7 km/h (1 Bft) 0 min 4,1 km/h (1 Bft)
13.10.2009 19:32 18,3 C 10,9 C 0,0 UV-I 0,0 C 47 % 69 % 0 % 1028,3 hPa 0,0 l/m 1,7 km/h (1 Bft) 0 min 4,1 km/h (1 Bft)
13.10.2009 19:34 18,3 C 10,9 C 0,0 UV-I 0,0 C 47 % 70 % 0 % 1028,3 hPa 0,0 l/m 1,7 km/h (1 Bft) 0 min 3,4 km/h (1 Bft)
13.10.2009 19:36 18,2 C 10,8 C 0,0 UV-I 0,0 C 47 % 70 % 0 % 1028,5 hPa 0,0 l/m 1,9 km/h (1 Bft) 0 min 4,1 km/h (1 Bft)
13.10.2009 19:38 18,2 C 10,9 C 0,0 UV-I 0,0 C 47 % 70 % 0 % 1028,5 hPa 0,0 l/m 1,9 km/h (1 Bft) 0 min 3,6 km/h (1 Bft)
13.10.2009 19:40 18,2 C 10,8 C 0,0 UV-I 0,0 C 47 % 70 % 0 % 1028,5 hPa 0,0 l/m 2,4 km/h (1 Bft) 0 min 3,8 km/h (1 Bft)
13.10.2009 19:42 18,2 C 10,8 C 0,0 UV-I 0,0 C 47 % 70 % 0 % 1028,5 hPa 0,0 l/m 2,2 km/h (1 Bft) 0 min 2,6 km/h (1 Bft)
13.10.2009 19:44 18,2 C 10,7 C 0,0 UV-I 0,0 C 47 % 70 % 0 % 1028,5 hPa 0,0 l/m 1,9 km/h (1 Bft) 0 min 3,4 km/h (1 Bft)
13.10.2009 19:46 18,2 C 10,7 C 0,0 UV-I 0,0 C 48 % 70 % 0 % 1028,5 hPa 0,0 l/m 2,2 km/h (1 Bft) 0 min 3,6 km/h (1 Bft)
13.10.2009 19:48 18,2 C 10,6 C 0,0 UV-I 0,0 C 48 % 70 % 0 % 1028,5 hPa 0,0 l/m 2,2 km/h (1 Bft) 0 min 2,9 km/h (1 Bft)
13.10.2009 19:50 18,1 C 10,6 C 0,0 UV-I 0,0 C 48 % 71 % 0 % 1028,5 hPa 0,0 l/m 1,9 km/h (1 Bft) 0 min 2,6 km/h (1 Bft)
13.10.2009 19:52 18,1 C 10,7 C 0,0 UV-I 0,0 C 48 % 71 % 0 % 1028,5 hPa 0,0 l/m 1,7 km/h (1 Bft) 0 min 0,0 km/h (0 Bft)
13.10.2009 19:54 18,2 C 10,6 C 0,0 UV-I 0,0 C 48 % 71 % 0 % 1028,5 hPa 0,0 l/m 1,7 km/h (1 Bft) 0 min 0,0 km/h (0 Bft)
13.10.2009 19:56 18,1 C 10,5 C 0,0 UV-I 0,0 C 48 % 71 % 0 % 1028,5 hPa 0,0 l/m 1,7 km/h (1 Bft) 0 min 3,8 km/h (1 Bft)
13.10.2009 19:58 18,1 C 10,5 C 0,0 UV-I 0,0 C 48 % 71 % 0 % 1028,5 hPa 0,0 l/m 1,9 km/h (1 Bft) 0 min 5,8 km/h (2 Bft)
13.10.2009 20:00 18,1 C 10,5 C 0,0 UV-I 0,0 C 48 % 71 % 0 % 1028,5 hPa 0,0 l/m 2,2 km/h (1 Bft) 0 min 2,6 km/h (1 Bft)
13.10.2009 20:02 18,1 C 10,5 C 0,0 UV-I 0,0 C 48 % 71 % 0 % 1028,5 hPa 0,0 l/m 2,2 km/h (1 Bft) 0 min 3,4 km/h (1 Bft)
13.10.2009 20:04 18,1 C 10,4 C 0,0 UV-I 0,0 C 48 % 72 % 0 % 1028,5 hPa 0,0 l/m 2,9 km/h (1 Bft) 0 min 9,6 km/h (2 Bft)
13.10.2009 20:06 18,0 C 10,3 C 0,0 UV-I 0,0 C 48 % 72 % 0 % 1028,5 hPa 0,0 l/m 2,9 km/h (1 Bft) 0 min 2,4 km/h (1 Bft)
13.10.2009 20:08 18,0 C 10,3 C 0,0 UV-I 0,0 C 48 % 72 % 0 % 1028,5 hPa 0,0 l/m 2,6 km/h (1 Bft) 0 min 0,0 km/h (0 Bft)
13.10.2009 20:10 18,0 C 10,3 C 0,0 UV-I 0,0 C 48 % 72 % 0 % 1028,5 hPa 0,0 l/m 2,2 km/h (1 Bft) 0 min 3,6 km/h (1 Bft)
13.10.2009 20:12 18,0 C 10,2 C 0,0 UV-I 0,0 C 48 % 72 % 0 % 1028,5 hPa 0,0 l/m 2,2 km/h (1 Bft) 0 min 3,6 km/h (1 Bft)
13.10.2009 20:14 18,0 C 10,3 C 0,0 UV-I 0,0 C 48 % 72 % 0 % 1028,5 hPa 0,0 l/m 2,4 km/h (1 Bft) 0 min 4,8 km/h (1 Bft)
13.10.2009 20:16 18,0 C 10,3 C 0,0 UV-I 0,0 C 48 % 72 % 0 % 1028,8 hPa 0,0 l/m 2,2 km/h (1 Bft) 0 min 2,9 km/h (1 Bft)
13.10.2009 20:18 18,0 C 10,3 C 0,0 UV-I 0,0 C 48 % 73 % 0 % 1028,8 hPa 0,0 l/m 1,9 km/h (1 Bft) 0 min 2,6 km/h (1 Bft)
13.10.2009 20:20 18,0 C 10,2 C 0,0 UV-I 0,0 C 48 % 73 % 0 % 1028,8 hPa 0,0 l/m 2,4 km/h (1 Bft) 0 min 4,1 km/h (1 Bft)
13.10.2009 20:22 18,0 C 10,1 C 0,0 UV-I 0,0 C 48 % 73 % 0 % 1028,8 hPa 0,0 l/m 2,4 km/h (1 Bft) 0 min 0,0 km/h (0 Bft)
13.10.2009 20:24 18,0 C 10,1 C 0,0 UV-I 0,0 C 48 % 73 % 0 % 1028,8 hPa 0,0 l/m 2,4 km/h (1 Bft) 0 min 3,6 km/h (1 Bft)
13.10.2009 20:26 18,0 C 10,1 C 0,0 UV-I 0,0 C 48 % 73 % 0 % 1028,8 hPa 0,0 l/m 2,4 km/h (1 Bft) 0 min 2,9 km/h (1 Bft)
13.10.2009 20:28 18,0 C 10,1 C 0,0 UV-I 0,0 C 48 % 73 % 0 % 1028,8 hPa 0,0 l/m 2,4 km/h (1 Bft) 0 min 3,1 km/h (1 Bft)
13.10.2009 20:30 18,0 C 10,0 C 0,0 UV-I 0,0 C 48 % 73 % 0 % 1028,8 hPa 0,0 l/m 2,4 km/h (1 Bft) 0 min 2,4 km/h (1 Bft)
13.10.2009 20:32 18,0 C 10,0 C 0,0 UV-I 0,0 C 48 % 74 % 0 % 1028,8 hPa 0,0 l/m 2,2 km/h (1 Bft) 0 min 2,9 km/h (1 Bft)
13.10.2009 20:34 17,9 C 10,0 C 0,0 UV-I 0,0 C 48 % 74 % 0 % 1028,8 hPa 0,0 l/m 1,9 km/h (1 Bft) 0 min 0,0 km/h (0 Bft)
13.10.2009 20:36 17,9 C 10,1 C 0,0 UV-I 0,0 C 48 % 74 % 0 % 1028,9 hPa 0,0 l/m 1,4 km/h (1 Bft) 0 min 0,0 km/h (0 Bft)
13.10.2009 20:38 17,9 C 10,0 C 0,0 UV-I 0,0 C 48 % 74 % 0 % 1028,9 hPa 0,0 l/m 1,2 km/h (1 Bft) 0 min 2,4 km/h (1 Bft)
13.10.2009 20:40 17,9 C 9,9 C 0,0 UV-I 0,0 C 48 % 74 % 0 % 1028,9 hPa 0,0 l/m 1,4 km/h (1 Bft) 0 min 4,3 km/h (1 Bft)
13.10.2009 20:42 17,9 C 9,9 C 0,0 UV-I 0,0 C 48 % 74 % 0 % 1028,9 hPa 0,0 l/m 1,7 km/h (1 Bft) 0 min 5,3 km/h (1 Bft)
13.10.2009 20:44 17,9 C 9,9 C 0,0 UV-I 0,0 C 49 % 74 % 0 % 1028,9 hPa 0,0 l/m 1,7 km/h (1 Bft) 0 min 0,0 km/h (0 Bft)
13.10.2009 20:46 17,9 C 9,9 C 0,0 UV-I 0,0 C 49 % 74 % 0 % 1028,9 hPa 0,0 l/m 2,2 km/h (1 Bft) 0 min 3,1 km/h (1 Bft)
13.10.2009 20:48 17,8 C 9,9 C 0,0 UV-I 0,0 C 49 % 74 % 0 % 1028,9 hPa 0,0 l/m 1,9 km/h (1 Bft) 0 min 0,0 km/h (0 Bft)
13.10.2009 20:50 17,8 C 9,9 C 0,0 UV-I 0,0 C 49 % 75 % 0 % 1028,9 hPa 0,0 l/m 2,2 km/h (1 Bft) 0 min 3,6 km/h (1 Bft)
13.10.2009 20:52 17,8 C 9,7 C 0,0 UV-I 0,0 C 49 % 75 % 0 % 1028,9 hPa 0,0 l/m 1,7 km/h (1 Bft) 0 min 2,9 km/h (1 Bft)
13.10.2009 20:54 17,8 C 9,7 C 0,0 UV-I 0,0 C 49 % 75 % 0 % 1028,9 hPa 0,0 l/m 1,7 km/h (1 Bft) 0 min 2,9 km/h (1 Bft)
13.10.2009 20:56 17,8 C 9,7 C 0,0 UV-I 0,0 C 49 % 75 % 0 % 1028,9 hPa 0,0 l/m 1,9 km/h (1 Bft) 0 min 4,3 km/h (1 Bft)
13.10.2009 20:58 17,8 C 9,6 C 0,0 UV-I 0,0 C 49 % 76 % 0 % 1028,9 hPa 0,0 l/m 2,4 km/h (1 Bft) 0 min 2,6 km/h (1 Bft)
13.10.2009 21:00 17,8 C 9,6 C 0,0 UV-I 0,0 C 49 % 76 % 0 % 1028,9 hPa 0,0 l/m 2,6 km/h (1 Bft) 0 min 4,6 km/h (1 Bft)
13.10.2009 21:02 17,8 C 9,7 C 0,0 UV-I 0,0 C 49 % 76 % 0 % 1028,9 hPa 0,0 l/m 2,9 km/h (1 Bft) 0 min 4,3 km/h (1 Bft)
13.10.2009 21:04 17,8 C 9,6 C 0,0 UV-I 0,0 C 49 % 76 % 0 % 1028,9 hPa 0,0 l/m 3,1 km/h (1 Bft) 0 min 3,8 km/h (1 Bft)
13.10.2009 21:06 17,8 C 9,5 C 0,0 UV-I 0,0 C 49 % 76 % 0 % 1028,9 hPa 0,0 l/m 3,1 km/h (1 Bft) 0 min 3,4 km/h (1 Bft)
13.10.2009 21:08 17,8 C 9,5 C 0,0 UV-I 0,0 C 49 % 76 % 0 % 1028,9 hPa 0,0 l/m 3,1 km/h (1 Bft) 0 min 2,4 km/h (1 Bft)
13.10.2009 21:10 17,8 C 9,5 C 0,0 UV-I 0,0 C 49 % 76 % 0 % 1028,9 hPa 0,0 l/m 2,9 km/h (1 Bft) 0 min 2,6 km/h (1 Bft)
13.10.2009 21:12 17,8 C 9,5 C 0,0 UV-I 0,0 C 49 % 76 % 0 % 1028,9 hPa 0,0 l/m 2,6 km/h (1 Bft) 0 min 3,4 km/h (1 Bft)
13.10.2009 21:14 17,8 C 9,5 C 0,0 UV-I 0,0 C 49 % 76 % 0 % 1028,9 hPa 0,0 l/m 2,4 km/h (1 Bft) 0 min 4,1 km/h (1 Bft)
13.10.2009 21:16 17,8 C 9,5 C 0,0 UV-I 0,0 C 49 % 76 % 0 % 1029,2 hPa 0,0 l/m 2,2 km/h (1 Bft) 0 min 2,6 km/h (1 Bft)
13.10.2009 21:18 17,7 C 9,4 C 0,0 UV-I 0,0 C 49 % 76 % 0 % 1029,2 hPa 0,0 l/m 1,9 km/h (1 Bft) 0 min 3,6 km/h (1 Bft)
13.10.2009 21:20 17,8 C 9,3 C 0,0 UV-I 0,0 C 49 % 76 % 0 % 1029,2 hPa 0,0 l/m 1,9 km/h (1 Bft) 0 min 4,6 km/h (1 Bft)
13.10.2009 21:22 17,7 C 9,3 C 0,0 UV-I 0,0 C 49 % 76 % 0 % 1029,2 hPa 0,0 l/m 1,9 km/h (1 Bft) 0 min 2,9 km/h (1 Bft)
13.10.2009 21:24 17,7 C 9,2 C 0,0 UV-I 0,0 C 49 % 76 % 0 % 1029,2 hPa 0,0 l/m 2,2 km/h (1 Bft) 0 min 5,1 km/h (1 Bft)
13.10.2009 21:26 17,7 C 9,2 C 0,0 UV-I 0,0 C 49 % 76 % 0 % 1029,2 hPa 0,0 l/m 2,4 km/h (1 Bft) 0 min 4,6 km/h (1 Bft)
13.10.2009 21:28 17,7 C 9,2 C 0,0 UV-I 0,0 C 49 % 76 % 0 % 1029,2 hPa 0,0 l/m 2,6 km/h (1 Bft) 0 min 3,4 km/h (1 Bft)
13.10.2009 21:30 17,7 C 9,3 C 0,0 UV-I 0,0 C 49 % 76 % 0 % 1029,2 hPa 0,0 l/m 2,6 km/h (1 Bft) 0 min 5,5 km/h (1 Bft)
13.10.2009 21:32 17,7 C 9,2 C 0,0 UV-I 0,0 C 49 % 76 % 0 % 1029,2 hPa 0,0 l/m 2,9 km/h (1 Bft) 0 min 2,9 km/h (1 Bft)
13.10.2009 21:34 17,7 C 9,1 C 0,0 UV-I 0,0 C 49 % 76 % 0 % 1029,2 hPa 0,0 l/m 2,6 km/h (1 Bft) 0 min 0,0 km/h (0 Bft)
13.10.2009 21:36 17,7 C 9,1 C 0,0 UV-I 0,0 C 49 % 76 % 0 % 1029,2 hPa 0,0 l/m 2,4 km/h (1 Bft) 0 min 2,4 km/h (1 Bft)
13.10.2009 21:38 17,7 C 9,1 C 0,0 UV-I 0,0 C 49 % 76 % 0 % 1029,2 hPa 0,0 l/m 1,9 km/h (1 Bft) 0 min 0,0 km/h (0 Bft)
13.10.2009 21:40 17,7 C 9,1 C 0,0 UV-I 0,0 C 50 % 76 % 0 % 1029,2 hPa 0,0 l/m 1,7 km/h (1 Bft) 0 min 0,0 km/h (0 Bft)
13.10.2009 21:42 17,7 C 8,9 C 0,0 UV-I 0,0 C 49 % 76 % 0 % 1029,2 hPa 0,0 l/m 1,4 km/h (1 Bft) 0 min 3,6 km/h (1 Bft)
13.10.2009 21:44 17,7 C 8,8 C 0,0 UV-I 0,0 C 50 % 76 % 0 % 1029,2 hPa 0,0 l/m 1,4 km/h (1 Bft) 0 min 0,0 km/h (0 Bft)
13.10.2009 21:46 17,7 C 8,9 C 0,0 UV-I 0,0 C 49 % 77 % 0 % 1029,2 hPa 0,0 l/m 1,2 km/h (1 Bft) 0 min 0,0 km/h (0 Bft)
13.10.2009 21:48 17,7 C 8,8 C 0,0 UV-I 0,0 C 49 % 77 % 0 % 1029,2 hPa 0,0 l/m 1,0 km/h (0 Bft) 0 min 0,0 km/h (0 Bft)
13.10.2009 21:50 17,7 C 8,7 C 0,0 UV-I 0,0 C 50 % 77 % 0 % 1029,2 hPa 0,0 l/m 1,2 km/h (1 Bft) 0 min 2,6 km/h (1 Bft)
13.10.2009 21:52 17,7 C 8,6 C 0,0 UV-I 0,0 C 50 % 77 % 0 % 1029,2 hPa 0,0 l/m 1,0 km/h (0 Bft) 0 min 2,6 km/h (1 Bft)
13.10.2009 21:54 17,7 C 8,7 C 0,0 UV-I 0,0 C 50 % 77 % 0 % 1029,2 hPa 0,0 l/m 0,7 km/h (0 Bft) 0 min 0,0 km/h (0 Bft)
13.10.2009 21:56 17,7 C 8,5 C 0,0 UV-I 0,0 C 50 % 77 % 0 % 1029,1 hPa 0,0 l/m 0,7 km/h (0 Bft) 0 min 0,0 km/h (0 Bft)
13.10.2009 21:58 17,7 C 8,4 C 0,0 UV-I 0,0 C 50 % 77 % 0 % 1029,1 hPa 0,0 l/m 0,7 km/h (0 Bft) 0 min 0,0 km/h (0 Bft)
13.10.2009 22:00 17,7 C 8,5 C 0,0 UV-I 0,0 C 50 % 77 % 0 % 1029,1 hPa 0,0 l/m 0,5 km/h (0 Bft) 0 min 0,0 km/h (0 Bft)
13.10.2009 22:02 17,7 C 8,4 C 0,0 UV-I 0,0 C 50 % 77 % 0 % 1029,1 hPa 0,0 l/m 0,5 km/h (0 Bft) 0 min 0,0 km/h (0 Bft)
13.10.2009 22:04 17,7 C 8,3 C 0,0 UV-I 0,0 C 50 % 77 % 0 % 1029,1 hPa 0,0 l/m 0,2 km/h (0 Bft) 0 min 2,6 km/h (1 Bft)
13.10.2009 22:06 17,7 C 8,3 C 0,0 UV-I 0,0 C 50 % 77 % 0 % 1029,1 hPa 0,0 l/m 0,2 km/h (0 Bft) 0 min 2,4 km/h (1 Bft)
13.10.2009 22:08 17,6 C 8,3 C 0,0 UV-I 0,0 C 50 % 78 % 0 % 1029,1 hPa 0,0 l/m 0,2 km/h (0 Bft) 0 min 0,0 km/h (0 Bft)
13.10.2009 22:10 17,6 C 8,1 C 0,0 UV-I 0,0 C 50 % 78 % 0 % 1029,1 hPa 0,0 l/m 0,2 km/h (0 Bft) 0 min 0,0 km/h (0 Bft)
13.10.2009 22:12 17,6 C 8,1 C 0,0 UV-I 0,0 C 50 % 78 % 0 % 1029,1 hPa 0,0 l/m 0,5 km/h (0 Bft) 0 min 3,1 km/h (1 Bft)
13.10.2009 22:14 17,6 C 8,0 C 0,0 UV-I 0,0 C 50 % 78 % 0 % 1029,1 hPa 0,0 l/m 0,5 km/h (0 Bft) 0 min 2,4 km/h (1 Bft)
13.10.2009 22:16 17,6 C 8,1 C 0,0 UV-I 0,0 C 50 % 78 % 0 % 1029,1 hPa 0,0 l/m 0,5 km/h (0 Bft) 0 min 0,0 km/h (0 Bft)
13.10.2009 22:18 17,6 C 8,0 C 0,0 UV-I 0,0 C 49 % 78 % 0 % 1029,1 hPa 0,0 l/m 0,5 km/h (0 Bft) 0 min 2,4 km/h (1 Bft)
13.10.2009 22:20 17,6 C 7,9 C 0,0 UV-I 0,0 C 49 % 78 % 0 % 1029,1 hPa 0,0 l/m 0,5 km/h (0 Bft) 0 min 0,0 km/h (0 Bft)
13.10.2009 22:22 17,6 C 7,9 C 0,0 UV-I 0,0 C 50 % 78 % 0 % 1029,1 hPa 0,0 l/m 0,2 km/h (0 Bft) 0 min 0,0 km/h (0 Bft)
13.10.2009 22:24 17,6 C 7,9 C 0,0 UV-I 0,0 C 50 % 78 % 0 % 1029,1 hPa 0,0 l/m 0,2 km/h (0 Bft) 0 min 0,0 km/h (0 Bft)
13.10.2009 22:26 17,6 C 7,7 C 0,0 UV-I 0,0 C 50 % 79 % 0 % 1029,1 hPa 0,0 l/m 0,2 km/h (0 Bft) 0 min 0,0 km/h (0 Bft)
13.10.2009 22:28 17,6 C 7,7 C 0,0 UV-I 0,0 C 49 % 79 % 0 % 1029,1 hPa 0,0 l/m 0,2 km/h (0 Bft) 0 min 0,0 km/h (0 Bft)
13.10.2009 22:30 17,6 C 7,6 C 0,0 UV-I 0,0 C 50 % 79 % 0 % 1029,1 hPa 0,0 l/m 0,0 km/h (0 Bft) 0 min 0,0 km/h (0 Bft)
13.10.2009 22:32 17,6 C 7,6 C 0,0 UV-I 0,0 C 50 % 79 % 0 % 1029,1 hPa 0,0 l/m 0,0 km/h (0 Bft) 0 min 0,0 km/h (0 Bft)
13.10.2009 22:34 17,6 C 7,6 C 0,0 UV-I 0,0 C 49 % 79 % 0 % 1029,1 hPa 0,0 l/m 0,0 km/h (0 Bft) 0 min 0,0 km/h (0 Bft)
13.10.2009 22:36 17,6 C 7,5 C 0,0 UV-I 0,0 C 50 % 79 % 0 % 1029,8 hPa 0,0 l/m 0,0 km/h (0 Bft) 0 min 0,0 km/h (0 Bft)
13.10.2009 22:38 17,6 C 7,4 C 0,0 UV-I 0,0 C 49 % 79 % 0 % 1029,8 hPa 0,0 l/m 0,0 km/h (0 Bft) 0 min 0,0 km/h (0 Bft)
13.10.2009 22:40 17,5 C 7,5 C 0,0 UV-I 0,0 C 49 % 80 % 0 % 1029,8 hPa 0,0 l/m 0,0 km/h (0 Bft) 0 min 0,0 km/h (0 Bft)
13.10.2009 22:42 17,5 C 7,4 C 0,0 UV-I 0,0 C 49 % 80 % 0 % 1029,8 hPa 0,0 l/m 0,0 km/h (0 Bft) 0 min 0,0 km/h (0 Bft)
13.10.2009 22:44 17,5 C 7,3 C 0,0 UV-I 0,0 C 50 % 79 % 0 % 1029,8 hPa 0,0 l/m 0,0 km/h (0 Bft) 0 min 0,0 km/h (0 Bft)
13.10.2009 22:46 17,5 C 7,2 C 0,0 UV-I 0,0 C 50 % 80 % 0 % 1029,8 hPa 0,0 l/m 0,0 km/h (0 Bft) 0 min 0,0 km/h (0 Bft)
13.10.2009 22:48 17,5 C 7,2 C 0,0 UV-I 0,0 C 50 % 80 % 0 % 1029,8 hPa 0,0 l/m 0,0 km/h (0 Bft) 0 min 0,0 km/h (0 Bft)
13.10.2009 22:50 17,5 C 7,2 C 0,0 UV-I 0,0 C 50 % 80 % 0 % 1029,8 hPa 0,0 l/m 0,0 km/h (0 Bft) 0 min 0,0 km/h (0 Bft)
13.10.2009 22:52 17,5 C 7,1 C 0,0 UV-I 0,0 C 50 % 80 % 0 % 1029,8 hPa 0,0 l/m 0,0 km/h (0 Bft) 0 min 0,0 km/h (0 Bft)
13.10.2009 22:54 17,5 C 7,0 C 0,0 UV-I 0,0 C 50 % 80 % 0 % 1029,8 hPa 0,0 l/m 0,2 km/h (0 Bft) 0 min 2,6 km/h (1 Bft)
13.10.2009 22:56 17,5 C 7,1 C 0,0 UV-I 0,0 C 50 % 80 % 0 % 1029,9 hPa 0,0 l/m 0,2 km/h (0 Bft) 0 min 0,0 km/h (0 Bft)
13.10.2009 22:58 17,5 C 6,9 C 0,0 UV-I 0,0 C 50 % 80 % 0 % 1029,9 hPa 0,0 l/m 0,5 km/h (0 Bft) 0 min 2,4 km/h (1 Bft)
13.10.2009 23:00 17,5 C 6,9 C 0,0 UV-I 0,0 C 50 % 80 % 0 % 1029,9 hPa 0,0 l/m 0,5 km/h (0 Bft) 0 min 0,0 km/h (0 Bft)
13.10.2009 23:02 17,5 C 6,9 C 0,0 UV-I 0,0 C 50 % 80 % 0 % 1029,9 hPa 0,0 l/m 0,7 km/h (0 Bft) 0 min 2,6 km/h (1 Bft)
13.10.2009 23:04 17,5 C 6,8 C 0,0 UV-I 0,0 C 50 % 80 % 0 % 1029,9 hPa 0,0 l/m 1,0 km/h (0 Bft) 0 min 3,8 km/h (1 Bft)
13.10.2009 23:06 17,5 C 6,8 C 0,0 UV-I 0,0 C 50 % 80 % 0 % 1029,9 hPa 0,0 l/m 1,0 km/h (0 Bft) 0 min 0,0 km/h (0 Bft)
13.10.2009 23:08 17,5 C 6,8 C 0,0 UV-I 0,0 C 49 % 80 % 0 % 1029,9 hPa 0,0 l/m 1,2 km/h (1 Bft) 0 min 2,6 km/h (1 Bft)
13.10.2009 23:10 17,4 C 6,8 C 0,0 UV-I 0,0 C 50 % 80 % 0 % 1029,9 hPa 0,0 l/m 1,7 km/h (1 Bft) 0 min 2,6 km/h (1 Bft)
13.10.2009 23:12 17,4 C 6,8 C 0,0 UV-I 0,0 C 49 % 80 % 0 % 1029,9 hPa 0,0 l/m 1,7 km/h (1 Bft) 0 min 0,0 km/h (0 Bft)
13.10.2009 23:14 17,4 C 6,7 C 0,0 UV-I 0,0 C 50 % 80 % 0 % 1029,9 hPa 0,0 l/m 1,4 km/h (1 Bft) 0 min 0,0 km/h (0 Bft)
13.10.2009 23:16 17,4 C 6,7 C 0,0 UV-I 0,0 C 50 % 80 % 0 % 1030,0 hPa 0,0 l/m 1,2 km/h (1 Bft) 0 min 0,0 km/h (0 Bft)
13.10.2009 23:18 17,4 C 6,6 C 0,0 UV-I 0,0 C 49 % 80 % 0 % 1030,0 hPa 0,0 l/m 1,0 km/h (0 Bft) 0 min 3,8 km/h (1 Bft)
13.10.2009 23:20 17,4 C 6,7 C 0,0 UV-I 0,0 C 49 % 79 % 0 % 1030,0 hPa 0,0 l/m 0,7 km/h (0 Bft) 0 min 0,0 km/h (0 Bft)
13.10.2009 23:22 17,4 C 6,7 C 0,0 UV-I 0,0 C 49 % 79 % 0 % 1030,0 hPa 0,0 l/m 0,2 km/h (0 Bft) 0 min 0,0 km/h (0 Bft)
13.10.2009 23:24 17,4 C 6,5 C 0,0 UV-I 0,0 C 49 % 79 % 0 % 1030,0 hPa 0,0 l/m 0,2 km/h (0 Bft) 0 min 0,0 km/h (0 Bft)
13.10.2009 23:26 17,4 C 6,5 C 0,0 UV-I 0,0 C 49 % 79 % 0 % 1030,0 hPa 0,0 l/m 0,2 km/h (0 Bft) 0 min 0,0 km/h (0 Bft)
13.10.2009 23:28 17,4 C 6,5 C 0,0 UV-I 0,0 C 49 % 79 % 0 % 1030,0 hPa 0,0 l/m 0,2 km/h (0 Bft) 0 min 0,0 km/h (0 Bft)
13.10.2009 23:30 17,4 C 6,4 C 0,0 UV-I 0,0 C 49 % 79 % 0 % 1030,0 hPa 0,0 l/m 0,2 km/h (0 Bft) 0 min 0,0 km/h (0 Bft)
13.10.2009 23:32 17,4 C 6,5 C 0,0 UV-I 0,0 C 49 % 79 % 0 % 1030,0 hPa 0,0 l/m 0,2 km/h (0 Bft) 0 min 2,6 km/h (1 Bft)
13.10.2009 23:34 17,4 C 6,4 C 0,0 UV-I 0,0 C 49 % 79 % 0 % 1030,0 hPa 0,0 l/m 0,2 km/h (0 Bft) 0 min 0,0 km/h (0 Bft)
13.10.2009 23:36 17,2 C 6,3 C 0,0 UV-I 0,0 C 49 % 79 % 0 % 1029,8 hPa 0,0 l/m 0,0 km/h (0 Bft) 0 min 0,0 km/h (0 Bft)
13.10.2009 23:38 17,2 C 6,3 C 0,0 UV-I 0,0 C 49 % 79 % 0 % 1029,8 hPa 0,0 l/m 0,0 km/h (0 Bft) 0 min 0,0 km/h (0 Bft)
13.10.2009 23:40 17,2 C 6,2 C 0,0 UV-I 0,0 C 49 % 80 % 0 % 1029,8 hPa 0,0 l/m 0,0 km/h (0 Bft) 0 min 0,0 km/h (0 Bft)
13.10.2009 23:42 17,2 C 6,3 C 0,0 UV-I 0,0 C 49 % 80 % 0 % 1029,8 hPa 0,0 l/m 0,0 km/h (0 Bft) 0 min 0,0 km/h (0 Bft)
13.10.2009 23:44 17,2 C 6,1 C 0,0 UV-I 0,0 C 49 % 80 % 0 % 1029,8 hPa 0,0 l/m 0,0 km/h (0 Bft) 0 min 0,0 km/h (0 Bft)
13.10.2009 23:46 17,2 C 6,1 C 0,0 UV-I 0,0 C 49 % 80 % 0 % 1029,8 hPa 0,0 l/m 0,0 km/h (0 Bft) 0 min 0,0 km/h (0 Bft)
13.10.2009 23:48 17,2 C 6,0 C 0,0 UV-I 0,0 C 49 % 80 % 0 % 1029,8 hPa 0,0 l/m 0,0 km/h (0 Bft) 0 min 0,0 km/h (0 Bft)
13.10.2009 23:50 17,3 C 6,0 C 0,0 UV-I 0,0 C 49 % 80 % 0 % 1029,8 hPa 0,0 l/m 0,0 km/h (0 Bft) 0 min 0,0 km/h (0 Bft)
13.10.2009 23:52 17,2 C 6,0 C 0,0 UV-I 0,0 C 49 % 80 % 0 % 1029,8 hPa 0,0 l/m 0,0 km/h (0 Bft) 0 min 0,0 km/h (0 Bft)
13.10.2009 23:54 17,3 C 5,9 C 0,0 UV-I 0,0 C 49 % 80 % 0 % 1029,8 hPa 0,0 l/m 0,0 km/h (0 Bft) 0 min 0,0 km/h (0 Bft)
13.10.2009 23:56 17,2 C 5,9 C 0,0 UV-I 0,0 C 49 % 80 % 0 % 1029,8 hPa 0,0 l/m 0,0 km/h (0 Bft) 0 min 0,0 km/h (0 Bft)
13.10.2009 23:58 17,2 C 5,9 C 0,0 UV-I 0,0 C 49 % 80 % 0 % 1029,8 hPa 0,0 l/m 0,0 km/h (0 Bft) 0 min 0,0 km/h (0 Bft)
_ Min-Zeit 07:44 08:10 00:02 00:02 15:50 14:48 00:02 00:02 - 00:10 - 00:02
Minimum _ 16,1 C 5,9 C 0,0 UV-I 0,0 C 43 % 52 % 0 % 1025,9 hPa - 0,0 km/h (0 Bft) - 0,0 km/h (0 Bft)
_ Max-Zeit 15:52 14:42 13:20 10:18 00:02 02:16 09:38 14:56 00:02 13:26 09:36 15:36
Maximum _ 20,0 C 14,9 C 12,8 UV-I 8,9 C 57 % 93 % 100 % 1031,2 hPa 0,0 l/m 7,9 km/h
S-SW (2 Bft)
2 min 25,0 km/h
S (4 Bft)
Durchschnitt _ 17,5 C 9,6 C 1,0 UV-I 1,5 C 52 % 78 % 28 % 1027,9 hPa #0,0 l/m 2,4 km/h (1 Bft) #5:44 h 3,6 km/h (1 Bft)
© 2012 W. Hausmann